cliquez pour ajouter le site Runraid à vos favoris  English version (google)  Retour à l'accueil Ecrire à l'auteur du site Runraid : Michel Jourdan



Les prochaines courses


Les derniers résultats

cliquez pour visualiser la page complète relatant la chronologie des éruptions du Piton de la Fournaise
éruptions Piton de la Fournaise


Ile de La Réunion

 Diagonale des Fous 

Ecrire au créateur du site : Michel Jourdan
Contact


2014-09-14 - Trail de la Côte d'Opale 31 km

Pour consulter le palmarès d'un coureur, un clic sur son nom !

Vous avez des remarques, corrections, ... sur ces résultats , un clic sur --> pour me transmettre toute information concernant les classements


Trail de la Côte d'Opale 31 km - 2014 : classement des 1301 finishers
Place Nom Temps Cat. Club Sexe Clt/cat.
Place Nom Temps Cat. Club Sexe Clt/cat.
1 VAN GASSE Etienne 02:07:29 SEM - M 1 SEM 3514
2 BENOIT Ramet 02:15:50 SEM - M 2 SEM 2090
3 HESSCHENTIER Romain 02:16:31 SEM - M 3 SEM 2745
4 LALLEMAND Geoffrey 02:22:30 SEM - M 4 SEM 2838
5 PLANCKE Philippe 02:27:54 V1M - M 1 V1M 3182
6 SOYEZ Guillaume 02:28:42 SEM - M 5 SEM 3337
7 DESMET Christopher 02:28:55 SEM - M 6 SEM 2440
8 COEUGNET Manuel 02:29:35 SEM - M 7 SEM 2265
9 CAUCHETEUX Francois 02:30:09 SEM - M 8 SEM 2233
10 JURAS Julien 02:30:30 SEM - M 9 SEM 2798
11 DUCLOY Kevin 02:31:31 SEM - M 10 SEM 2510
12 MONFROY Laurent 02:32:41 V1M - M 2 V1M 3061
13 DUPONT DE DINECHIN Jean Marie 02:34:27 SEM - M 11 SEM 3524
14 ADELMANT Alexis 02:34:37 V1M - M 3 V1M 2004
15 BURETTE Matthieu 02:34:50 SEM - M 12 SEM 2186
16 CAGNARD Jean Damien 02:35:41 SEM - M 13 SEM 2196
17 DUPONT Jean Pierre 02:36:02 V2M - M 1 V2M 2532
18 PAYEN Francois 02:36:17 SEM - M 14 SEM 3137
19 MEZERETTE Philippe 02:36:28 V2M - M 2 V2M 3044
20 GILBART Yoann 02:36:59 SEM - M 15 SEM 2660
21 POCLET Cedric 02:37:05 SEM - M 16 SEM 3187
22 PORCHET Jean Christophe 02:37:11 SEM - M 17 SEM 3191
23 FLIPO Gregoire 02:37:19 V1M - M 4 V1M 2597
24 VASSEUR Gregory 02:40:03 SEM - M 18 SEM 3454
25 VASSEUR Dimitri 02:40:43 V1M - M 5 V1M 3456
26 BARTIER Gregory 02:40:49 V1M - M 6 V1M 2065
27 CHOQUET Jeremy 02:40:59 SEM - M 19 SEM 2249
28 DUQUESNE Benoit 02:41:04 SEM - M 20 SEM 2542
29 LECLERCQ Benoit 02:41:11 V1M - M 7 V1M 2873
30 CASIER Nicolas 02:41:38 V1M - M 8 V1M 2220
31 JACQZ Marc Anthoine 02:42:28 SEM - M 21 SEM 2777
32 DURIEU Antoine 02:42:47 SEM - M 22 SEM 2547
33 DELCAMBRE Jerome 02:43:52 V1M - M 9 V1M 2378
34 LAFAYE Caroline 02:44:12 SEF - F 1ere F 2831
35 DRANSART Adrien 02:44:25 SEM - M 23 SEM 2493
36 TRUYAERT Eddy 02:44:35 V1M - M 10 V1M 3393
37 RAUX Thibault 02:45:17 SEM - M 24 SEM 3227
38 SANTERNE Sebastien 02:45:23 SEM - M 25 SEM 3296
39 BARBERIO Guillaume 02:45:29 SEM - M 26 SEM 2054
40 CAMPAGNE Frederic 02:45:42 SEM - M 27 SEM 2202
41 DELERS Maximilien 02:45:52 SEM - M 28 SEM 2390
42 DESTREZ Teddy 02:46:01 V1M - M 11 V1M 2455
43 BIGI Johann 02:46:06 SEM - M 29 SEM 3517
44 DUMOULIN Rudi 02:46:40 V1M - M 12 V1M 2528
45 FRANCOIS Florent 02:46:57 SEM - M 30 SEM 2619
46 WINDAL Pierre 02:47:10 SEM - M 31 SEM 3504
47 VANDEWALLE Thomas 02:47:16 SEM - M 32 SEM 3433
48 DELATTRE David 02:47:30 V1M - M 13 V1M 2374
49 SCHUPPE Clotaire 02:47:46 V2M - M 3 V2M 3530
50 EYMANN Cedric 02:47:59 SEM - M 33 SEM 2568
51 LECERF Renaud 02:48:21 V1M - M 14 V1M 2868
52 BINDELLE Simon 02:48:27 SEM - M 34 SEM 2111
53 VERBRIGGHE Norbert 02:48:35 SEM - M 35 SEM 3458
54 PIETIN Laurent 02:48:48 V1M - M 15 V1M 3173
55 PERRAULT David 02:48:50 V1M - M 16 V1M 3146
56 PIERARD Michel 02:49:13 V1M - M 17 V1M 3168
57 MARTEL Cyril 02:49:49 V1M - M 18 V1M 3009
58 FOURNIER Olivier 02:49:52 V1M - M 19 V1M 2610
59 CARDON Philippe 02:50:24 V1M - M 20 V1M 2213
60 CAMPION Nicolas 02:50:32 SEM - M 36 SEM 2204
61 OCHOA Jonathan 02:50:54 SEM - M 37 SEM 3113
62 THIBEAU Nicolas 02:50:54 SEM - M 38 SEM 3366
63 VANSTRAZEELE Mathieu 02:50:56 SEM - M 39 SEM 3448
64 HER Jonathan 02:51:03 SEM - M 40 SEM 2735
65 DEGRAVE Thibaut 02:51:15 SEM - M 41 SEM 2364
66 DHAINE Nicolas 02:51:55 V1M - M 21 V1M 2474
67 BRIHAYE Dominique 02:52:12 SEM - M 42 SEM 2189
68 PETIT Xavier 02:52:15 V1M - M 22 V1M 3153
69 BARTHELEMY Christian 02:52:33 V1M - M 23 V1M 2063
70 CABY Raphail 02:52:58 V1M - M 24 V1M 2194
71 MOREL Sebastien 02:53:27 SEM - M 43 SEM 3068
72 POLPRE Franck 02:53:46 V1M - M 25 V1M 3189
73 COURBOT Vincent 02:53:49 SEM - M 44 SEM 2290
74 MUYL Nicolas 02:54:14 SEM - M 45 SEM 3086
75 BIGO Jean Baptiste 02:54:19 SEM - M 46 SEM 2110
76 DHELLEMMES Hugues 02:54:47 V1M - M 26 V1M 2475
77 DELANNOY Damien 02:54:50 SEM - M 47 SEM 2370
78 DESBONNETS Christophe 02:54:55 V1M - M 27 V1M 2430
79 FLIPO Quentin 02:54:56 SEM - M 48 SEM 2760
80 ROCHES Arnaud 02:54:56 V1M - M 28 V1M 3246
81 GOOSSENS Thomas 02:55:04 SEM - M 49 SEM 2679
82 KELLER Bastien 02:55:19 SEM - M 50 SEM 2807
83 LAMOUR Laurent 02:55:20 V1M - M 29 V1M 2845
84 DANGLETERRE Dimitri 02:55:39 SEM - M 51 SEM 2318
85 CLETY Frederic 02:55:41 V1M - M 30 V1M 2259
86 TRIBOULT Joel 02:55:44 SEM - M 52 SEM 3389
87 LERMYTTE Marc 02:55:47 SEM - M 53 SEM 2932
88 DAEL Michel 02:55:54 V1M - M 31 V1M 2311
89 ROMUALD Vandingenen 02:56:11 V1M - M 32 V1M 3256
90 MANEAU Cyrille 02:56:20 V1M - M 33 V1M 2995
91 AGOSTINO Antonio 02:56:28 V1M - M 34 V1M 2007
92 DESOOMER Benoit 02:56:33 V1M - M 35 V1M 2445
93 LIBERT Dominique 02:56:39 V1M - M 36 V1M 2947
94 VILLEZ Morgan 02:56:46 SEM - M 54 SEM 3472
95 ANNE Ludovic 02:56:47 V1M - M 37 V1M 2017
96 LEPERS Damien 02:56:54 V2M - M 4 V2M 2926
97 DANET Laurent 02:56:55 V1M - M 38 V1M 2316
98 PERES Thierry 02:57:01 V1M - M 39 V1M 3145
99 PAPOT GOANVIC Brieuc 02:57:05 SEM - M 55 SEM 3124
100 DUBRULLE Franck 02:57:19 V2M - M 5 V2M 2500
101 KOMOROWSKI Matthieu 02:57:37 SEM - M 56 SEM 2818
102 GRESSIER Rodolphe 02:57:39 V1M - M 40 V1M 2695
103 DEROO Francois 02:57:47 SEM - M 57 SEM 2426
104 DESTOMBES Benoit 02:57:48 V2M - M 6 V2M 2452
105 ZALEWSKI Nicolas 02:57:50 SEM - M 58 SEM 3511
106 DOMINIQUE Heusschen 02:57:51 V2M - M 7 V2M 2487
107 BAILLY Jean Luc 02:57:54 SEM - M 59 SEM 2043
108 CATFOLIS Damien 02:58:07 SEM - M 60 SEM 2226
109 APPART Thierry 02:58:09 SEM - M 61 SEM 2024
110 MINNECI Sebastien 02:58:14 SEM - M 62 SEM 3053
111 DAMIENS Philippe 02:58:45 V1M - M 41 V1M 2315
112 LENOIR Yannick 02:58:50 SEM - M 63 SEM 2924
113 DEFECHEREUX Pascal 02:58:56 SEM - M 64 SEM 2360
114 GILLES Clinquart 02:59:02 SEM - M 65 SEM 2664
115 HORAK Stephane 02:59:04 V1M - M 42 V1M 2755
116 VASSEUR Loic 02:59:41 V1M - M 43 V1M 3533
117 HeDON Samuel 03:00:00 SEM - M 66 SEM 2726
118 LIPKA Xavier 03:00:19 SEM - M 67 SEM 2949
119 PAPOT Martin 03:00:19 SEM - M 68 SEM 3123
120 HUBEAUX Vincent 03:00:20 V1M - M 44 V1M 2768
121 MARTHOZ Pascal 03:00:21 V1M - M 45 V1M 3010
122 LEHAEN Pierre Olivier 03:00:43 SEM - M 69 SEM 2904
123 CATRY Jean Baptiste 03:00:50 SEM - M 70 SEM 2228
124 BAVIERE Gaetan 03:00:50 V2M - M 8 V2M 2071
125 SENSE Xavier 03:00:53 SEM - M 71 SEM 3312
126 VALLERAND Pascal 03:00:58 V1M - M 46 V1M 3401
127 ROBIC Francois 03:00:59 SEM - M 72 SEM 3244
128 SARTORIUS David 03:01:06 V1M - M 47 V1M 3297
129 MALENGREAUX Benjamin 03:01:08 SEM - M 73 SEM 2988
130 BLONDEL Benoit 03:01:10 SEM - M 74 SEM 2120
131 FRANCOIS Christophe 03:01:15 SEM - M 75 SEM 2618
132 BOUCHEZ Yannick 03:01:16 SEM - M 76 SEM 2141
133 BERNARD Gregory 03:01:16 SEM - M 77 SEM 2098
134 BRUNQUET Eric 03:01:19 V2M - M 9 V2M 2180
135 PHILIPPOT Elie 03:01:23 SEM - M 78 SEM 3160
136 GUILMIN David 03:01:23 V1M - M 48 V1M 2710
137 GRIGORIEFF Alicia 03:01:24 SEF - F 2eme F 2698
138 ROUTIER Fabien 03:01:25 SEM - M 79 SEM 3267
139 VANDERSYPE Francis 03:01:25 V3M - M 1 V3M 3430
140 LEJEUNE Franck 03:01:26 V1M - M 49 V1M 2908
141 DURANT Philippe 03:01:32 V1M - M 50 V1M 2546
142 BONVOISIN Eddy 03:01:34 V1M - M 51 V1M 2135
143 MARANT Louis 03:01:37 SEM - M 80 SEM 3000
144 LEHON Ludovic 03:01:39 SEM - M 81 SEM 2905
145 DEMARTHE Ludo 03:01:53 V1M - M 52 V1M 2410
146 LAVIGNE Jean Christophe 03:02:19 V1M - M 53 V1M 2855
147 DELVART Franck 03:02:20 V1M - M 54 V1M 2405
148 BONNEVIE Franck 03:02:25 M - M 1 M 2132
149 BURTOMBOY Nicolas 03:02:42 SEM - M 82 SEM 2188
150 VANTORRE Sebastien 03:02:43 SEM - M 83 SEM 3449
151 NICOLAS Marc Alfred 03:02:49 SEM - M 84 SEM 3101
152 PICOT Philippe 03:02:55 V1M - M 55 V1M 3165
153 BONDUAEUX Virginie 03:03:04 SEF - F 3eme F 2129
154 GASNIER Christophe 03:03:06 V2M - M 10 V2M 2645
155 REGENT Anne 03:03:10 V1F - F 1 V1F 3230
156 DUBOC Geoffroy 03:03:18 SEM - M 85 SEM 2497
157 BENOIT Vandaele 03:03:20 SEM - M 86 SEM 2089
158 ACLOQUE Cyril 03:03:31 SEM - M 87 SEM 2003
159 GENET Clement 03:03:37 SEM - M 88 SEM 2654
160 PHILIS Jacques 03:03:41 V3M - M 2 V3M 3161
161 DHAENENS Gilles 03:03:58 SEM - M 89 SEM 2472
162 DILLIES Guillaume 03:04:10 SEM - M 90 SEM 2483
163 DUHAMEL Maxime 03:04:19 SEM - M 91 SEM 2517
164 MACHU Fabien 03:04:31 V1M - M 56 V1M 2973
165 PRUVOST Yannick 03:04:50 V1M - M 57 V1M 3204
166 LETITRE Bruno 03:05:03 SEM - M 92 SEM 2939
167 CUISINIER Sophie 03:05:09 SEF - F 4 SEF 3519
168 VANDENBERGHE Stephane 03:05:13 SEM - M 93 SEM 3421
169 EVARD Patrice 03:05:27 SEM - M 94 SEM 2564
170 COUPEZ Adrien 03:05:31 SEM - M 95 SEM 2289
171 DEVES Fabien 03:05:32 SEM - M 96 SEM 2466
172 FALEUR Xavier 03:05:34 SEM - M 97 SEM 2576
173 SERGENT Sebastien 03:05:48 V1M - M 58 V1M 3313
174 DUBOIS Thierry 03:06:08 V1M - M 59 V1M 2499
175 STRECK Antoine 03:06:14 SEM - M 98 SEM 3346
176 DE VILLERS Venceslas 03:06:19 SEM - M 99 SEM 2343
177 STePHANE Leicht 03:06:20 V2M - M 11 V2M 3343
178 MASSOZ Benoit 03:06:23 V2M - M 12 V2M 3019
179 D HAILLECOURT Herve 03:06:23 V1M - M 60 V1M 2308
180 JAUQUET Emeric 03:06:26 SEM - M 100 SEM 2781
181 MARCHESE Fabian 03:06:28 V1M - M 61 V1M 3004
182 HOUSSIN Arnaud 03:06:39 SEM - M 101 SEM 2764
183 BRUNO Gobert 03:06:48 V1M - M 62 V1M 2179
184 VANNESTE Michael 03:07:02 SEM - M 102 SEM 3444
185 BAUET Clement 03:07:10 SEM - M 103 SEM 2070
186 FOURDIN Vincent 03:07:21 SEM - M 104 SEM 2608
187 PENIN Nicolas 03:07:29 SEM - M 105 SEM 3141
188 SARTORIUS Apolline 03:07:29 V1F - F 2 V1F 3298
189 DELECROIX Benoit 03:07:32 SEM - M 106 SEM 2388
190 SERGENT Helene 03:07:32 SEF - F 5 SEF 3314
191 KEYGNAERT Wim 03:07:34 V1M - M 63 V1M 2811
192 LAACHOURI Abdel 03:07:35 V1M - M 64 V1M 2825
193 FOURNY Jerome 03:07:47 V1M - M 65 V1M 2613
194 RYCKEWAERT Xavier 03:07:50 SEM - M 107 SEM 3285
195 DELANNOY Francois 03:07:52 SEM - M 108 SEM 2369
196 LANOY Adrien 03:08:01 SEM - M 109 SEM 2700
197 GARDEZ Jan 03:08:02 SEM - M 110 SEM 2641
198 CANON Mathieu 03:08:16 SEM - M 111 SEM 2207
199 VANSANTVOET Stephane 03:08:17 SEM - M 112 SEM 3446
200 LE FLOHIC Arnaud 03:08:38 SEM - M 113 SEM 2859
201 VUATRIN Alban 03:08:51 SEM - M 114 SEM 3479
202 SORY Herve 03:08:52 V1M - M 66 V1M 3335
203 DELANGHE Patrick 03:09:15 V3M - M 3 V3M 2368
204 COSAERT Kevin 03:09:16 SEM - M 115 SEM 2283
205 WIERRE Laurent 03:09:27 SEM - M 116 SEM 3496
206 COLLIE Fabian 03:09:37 V1M - M 67 V1M 2270
207 DA SILVA Fernando 03:09:38 V1M - M 68 V1M 2310
208 NICAUD Julien 03:09:42 SEM - M 117 SEM 3100
209 PEETERS Danny 03:09:47 SEM - M 118 SEM 3139
210 CAILLAT Philippe 03:09:51 V1M - M 69 V1M 2197
211 CARREZ Thomas 03:10:04 SEM - M 119 SEM 2217
212 CONSTANT Alain 03:10:06 V1M - M 70 V1M 2275
213 THIBEAU Arnaud 03:10:09 V1M - M 71 V1M 3365
214 DARCIS Gilles 03:10:15 SEM - M 120 SEM 2322
215 ROCOURT Eric 03:10:21 V2M - M 13 V2M 3247
216 DARD Stephane 03:10:22 V1M - M 72 V1M 2323
217 LEMAIRE Pierre 03:10:22 SEM - M 121 SEM 2915
218 DEMONCEAU Henri 03:10:24 V2M - M 14 V2M 2414
219 MESPLOMB Merry 03:10:25 V1M - M 73 V1M 3040
220 DEGRAEVE Serge 03:10:35 V1M - M 74 V1M 2363
221 DELVIGNE Jean Francois 03:10:51 SEM - M 122 SEM 2407
222 MALIAR Marc 03:10:58 V1M - M 75 V1M 2990
223 PIERRE OLIVIER Van Elslande 03:10:59 SEM - M 123 SEM 3171
224 WATRELOTA Sebastien 03:11:07 V1M - M 76 V1M 2683
225 LEROY Christophe 03:11:09 V1M - M 77 V1M 2935
226 FAUCOEUR David 03:11:10 SEM - M 124 SEM 2580
227 BEAUCAMP Jose 03:11:15 V1M - M 78 V1M 2073
228 KACZMAREK Stephane 03:11:21 V1M - M 79 V1M 2800
229 PARENT Frederic 03:11:30 SEM - M 125 SEM 3127
230 BOURREAU Emmanuel 03:11:31 V1M - M 80 V1M 2155
231 DE PRIL Koen 03:11:33 V1M - M 81 V1M 2340
232 DUWAT Frederic 03:11:36 V1M - M 82 V1M 2553
233 GALLET Aurelien 03:11:46 SEM - F 126 SEM 2636
234 RUISSEAU Maxime 03:11:48 SEM - M 127 SEM 3277
235 ABACHIN Jean Marc 03:11:50 V1M - M 83 V1M 2000
236 DOURIEZ Stephane 03:11:59 V1M - M 84 V1M 2490
237 RADET Michele 03:12:03 V1F - F 3 V1F 3212
238 LOURDEL Gregory 03:12:11 V1M - M 85 V1M 2966
239 DIEU Claude 03:12:23 V2M - M 15 V2M 2481
240 ZAJACZKOWSKI Piotr 03:12:25 SEM - M 128 SEM 3510
241 GEORGES De Oliveira 03:12:39 V1M - M 86 V1M 2657
242 CLERGEAU Julien 03:12:40 SEM - M 129 SEM 2258
243 REY Jean Francois 03:12:45 V2M - M 16 V2M 3234
244 VANHERPE Jean Francois 03:12:52 SEM - M 130 SEM 3439
245 NERVA Baptiste 03:12:54 SEM - M 131 SEM 3097
246 MOTTEZ Paul 03:12:58 SEM - M 132 SEM 3074
247 VISTOT Ludovic 03:13:06 V1M - M 87 V1M 3476
248 DUBOIS Stephane 03:13:08 V1M - M 88 V1M 2498
249 DESMARESCAUX Remi 03:13:09 SEM - M 133 SEM 2438
250 CASTEL Sabrina 03:13:11 SEF - F 6 SEF 2224
251 MARCANT Guillaume 03:13:18 SEM - M 134 SEM 3001
252 BARBIER Remi 03:13:19 SEM - M 135 SEM 2057
253 RODRIGUEZ LOPEZ Alexis 03:13:23 SEM - M 136 SEM 3249
254 GAILLET Christophe 03:13:37 V1M - M 89 V1M 2634
255 DUCROCQ Gabriel 03:13:40 V3M - M 4 V3M 2512
256 FASQUEL Vincent 03:13:41 SEM - M 137 SEM 2578
257 TALON Jean 03:13:43 V2M - M 17 V2M 3532
258 BRIEZ Arnaud 03:13:48 SEM - M 138 SEM 3518
259 ROCOURT Christophe 03:13:48 V1M - M 90 V1M 3248
260 BOCQUET Frederic 03:13:51 V1M - M 91 V1M 2123
261 MOUGIN Nicolas 03:14:00 SEM - M 139 SEM 3076
262 BRACQ Aurelien 03:14:12 SEM - F 140 SEM 2162
263 ERIC Dessaintjean 03:14:15 V1M - M 92 V1M 2560
264 HENNEBELLE Jean Patrick 03:14:21 SEM - M 141 SEM 2727
265 MONTFAUCON Lionel 03:14:33 V1M - M 93 V1M 3064
266 GREMONT Sophie 03:14:50 V1F - F 4 V1F 2693
267 PIPART Greg 03:14:53 SEM - M 142 SEM 3178
268 LEMAIRE Cyrille 03:15:23 V1M - M 94 V1M 2917
269 DE VROEDE Nadine 03:15:26 V2F - F 1 V2F 2344
270 PROY Berenger 03:15:38 SEM - M 143 SEM 3201
271 LACROIX Jerome 03:15:47 V1M - M 95 V1M 2829
272 DELAETER Christine 03:15:48 V2F - F 2 V2F 2366
273 MISSIAEN Jean Luc 03:15:57 V2M - M 18 V2M 3057
274 NEMEGHAIRE Benoit 03:16:08 SEM - M 144 SEM 3096
275 CUVILLIER Remy 03:16:34 SEM - M 145 SEM 2305
276 BRIDAULT Jean Francois 03:16:47 SEM - M 146 SEM 2172
277 DELEBARRE Michel 03:16:49 V2M - M 19 V2M 2384
278 MULLIEZ Julien 03:17:02 V1M - M 96 V1M 3082
279 LHOMME Stephanie 03:17:03 V1F - F 5 V1F 2946
280 FAJARDY Philippe 03:17:16 V2M - M 20 V2M 2575
281 GNIADEK Tomasz 03:17:18 SEM - M 147 SEM 2671
282 VAN STAEN David 03:17:25 V1M - M 97 V1M 3413
283 PROSPERE Philippe 03:17:29 V1M - M 98 V1M 3199
284 DENIS Romain 03:17:37 SEM - M 148 SEM 2419
285 GAUTHIER Guillaume 03:17:39 SEM - M 149 SEM 2648
286 DeGARDIN Arnaud 03:17:45 V1M - M 99 V1M 2362
287 GRANDFILS Guillaume 03:17:45 SEM - M 150 SEM 2685
288 COULLIOU Yann 03:17:47 SEM - M 151 SEM 2285
289 BOUCHERY Vincent 03:17:52 V1M - M 100 V1M 2139
290 RIGAUX Francois 03:17:55 SEM - M 152 SEM 3241
291 FOURNIER Maxime 03:17:59 SEM - M 153 SEM 2612
292 ROUSSEL Laurent 03:18:01 V1M - M 101 V1M 3264
293 FORNET Gregory 03:18:04 SEM - M 154 SEM 2605
294 VAN ISEGHEM Katia 03:18:07 SEF - F 7 SEF 3409
295 GARCIA Daniel 03:18:09 V1M - M 102 V1M 2640
296 DESAINS Stephane 03:18:14 V1M - M 103 V1M 2428
297 DUPR? Vincent 03:18:14 V1M - M 104 V1M 2534
298 MUSIN Renaud 03:18:18 SEM - M 155 SEM 3084
299 LEBIHAN Gregory 03:18:24 SEM - M 156 SEM 2866
300 EVRARD Didier 03:18:30 V1M - M 105 V1M 2565
301 CARTENET Jerome 03:18:32 V1M - M 106 V1M 2219
302 COUSIN Francois 03:18:36 SEM - M 157 SEM 2294
303 FERNANDES Joaquim 03:18:42 V2M - M 21 V2M 2584
304 RUDDY Coulon 03:18:44 V2M - M 22 V2M 3276
305 VAMOUR Alain 03:18:46 V1M - M 107 V1M 3402
306 TIEGHEM Aurelien 03:18:52 SEM - F 158 SEM 3383
307 NOLLET Louis 03:18:56 SEM - M 159 SEM 3109
308 NOWAK Marian 03:18:59 V1M - M 108 V1M 3112
309 JEAN PHILIPPE Streck 03:19:01 SEM - M 160 SEM 2782
310 HENON Frederic 03:19:03 V1M - M 109 V1M 2732
311 FUMANA Edwige 03:19:07 SEF - F 8 SEF 2631
312 LEJEUNE Ghislain 03:19:10 V1M - M 110 V1M 2907
313 NAiMA Haret 03:19:11 V1F - F 6 V1F 3089
314 FLORENCE Klein 03:19:14 V1F - F 7 V1F 2598
315 MERESSE Remy 03:19:22 SEM - M 161 SEM 3036
316 NOEL Boulanger 03:19:35 V1M - M 111 V1M 3107
317 CHAHBAZIAN Eric 03:19:35 SEM - M 162 SEM 2238
318 CALONNE Bertrand 03:19:41 V1M - M 112 V1M 2200
319 GRASLAND Jean Pierre 03:19:45 V2M - M 23 V2M 2688
320 AMAURY Wannez 03:19:48 V1M - M 113 V1M 2013
321 JOLLANT Gaetan 03:19:55 V1M - M 114 V1M 2791
322 DELLIAUX Emmanuel 03:20:02 SEM - M 163 SEM 2401
323 MARTIN Carole 03:20:05 V1F - F 8 V1F 3012
324 SIRJACOBS Rosine 03:20:07 V3F - F 1 V3F 3327
325 DAUTREVAUX Franck 03:20:19 V1M - M 115 V1M 2326
326 GOUIN Mickael 03:20:26 V1M - M 116 V1M 2683
327 MAY Claudie 03:20:27 V1F - F 9 V1F 3025
328 DESCAMPS Damien 03:20:37 V1M - M 117 V1M 2432
329 LEMEE Maelys 03:20:47 SEF - F 9 SEF 2920
330 PAQUEZ Pascal 03:20:50 V2M - M 24 V2M 3125
331 DE MUYNCK Fabrice 03:20:54 V1M - M 118 V1M 2336
332 JOURDANT Denys 03:20:59 V1M - M 119 V1M 2797
333 DESOBRY Stephane 03:21:01 V2M - M 25 V2M 2444
334 LEFRANC Olivier 03:21:03 V1M - M 120 V1M 2895
335 MARTIN Philippe 03:21:08 V2M - M 26 V2M 3013
336 DE PAUW Christophe 03:21:09 V1M - M 121 V1M 2339
337 STRECK Vincent 03:21:17 SEM - M 164 SEM 3347
338 DEWALLE Laurent 03:21:21 SEM - M 165 SEM 2469
339 RYCKEBUSCH Emmanuel 03:21:22 SEM - M 166 SEM 3281
340 CHARLES Stephane 03:21:27 V1M - M 122 V1M 2245
341 SAMAIN Thibault 03:21:27 SEM - M 167 SEM 3293
342 DELATTAIGNANT Ludovic 03:21:34 V1M - M 123 V1M 2371
343 GINOLIN Frankie 03:21:34 V1M - M 124 V1M 2698
344 LEGRAND Olivier 03:21:41 V1M - M 125 V1M 2899
345 TRIPNAUX Loic 03:21:41 SEM - M 168 SEM 3390
346 VANDAELE Tommy 03:21:52 SEM - M 169 SEM 3416
347 MEEUWIS Simon 03:21:57 V3M - M 5 V3M 3029
348 PIECHEL Christophe 03:21:58 SEM - M 170 SEM 3167
349 MUR Cedric 03:22:00 SEM - M 171 SEM 3083
350 ISIDORE Maurice 03:22:01 V2M - M 27 V2M 2774
351 BAILLEUL Alexandre 03:22:03 SEM - M 172 SEM 2041
352 AUGUIe Sophie 03:22:05 V1F - F 10 V1F 2031
353 ROMIEU Nicolas 03:22:08 SEM - M 173 SEM 3255
354 FAYOLLE Emmanuel 03:22:11 V1M - M 126 V1M 2583
355 GENTE Sebastien 03:22:11 V1M - M 127 V1M 2656
356 PATOUT Simon 03:22:12 SEM - M 174 SEM 3133
357 LOUF Bernard 03:22:18 SEM - M 175 SEM 2965
358 HEUSSCHEN Christine 03:22:24 V1F - F 11 V1F 2747
359 HERBIN Philippe 03:22:25 V1M - M 128 V1M 2736
360 DEPOORTER Frederic 03:22:34 V1M - M 129 V1M 2422
361 MYON Luc 03:22:42 SEM - M 176 SEM 3087
362 GONTIER Julien 03:22:44 SEM - M 177 SEM 2678
363 FLAJOLET Herve 03:22:44 V1M - M 130 V1M 2593
364 LELEU Thomas 03:22:45 SEM - M 178 SEM 2912
365 CORNUEL Olivier 03:22:51 V1M - M 131 V1M 2281
366 MACHEN Jeremie 03:22:51 SEM - M 179 SEM 2971
367 BOD?LE Gregory 03:22:52 V1M - M 132 V1M 2124
368 PLAISANT Pierre Marie 03:22:54 V2M - M 28 V2M 3181
369 THERIER Maxime 03:22:59 SEM - M 180 SEM 3361
370 DUCLOY Eddy 03:23:00 V1M - M 133 V1M 2511
371 THOMERE Frederic 03:23:02 SEM - M 181 SEM 3375
372 GIROUD Franck 03:23:05 V1M - M 134 V1M 2668
373 SAINT MAXIN Florent 03:23:05 SEM - M 182 SEM 3288
374 SAUBLAINS Alain 03:23:10 V2M - M 29 V2M 3299
375 WATINE Antony 03:23:12 V1M - M 135 V1M 3488
376 COSAERT Hugues 03:23:12 V2M - M 30 V2M 2282
377 MALINVAUD Paul 03:23:14 SEM - M 183 SEM 2991
378 DETHOOR Dominique 03:23:15 V2M - M 31 V2M 2458
379 TERNINCK Arnaud 03:23:18 SEM - M 184 SEM 3354
380 MERLOT Chloe 03:23:21 SEF - F 10 SEF 3038
381 GRASSELLI Sabrina 03:23:27 SEF - F 11 SEF 2690
382 RASKINET Renaud 03:23:29 V1M - M 136 V1M 3223
383 DURAN Delphine 03:23:32 SEF - F 12 SEF 2543
384 MOUQUIN Olivier 03:23:34 SEM - M 185 SEM 3077
385 GUILLAUM Jean Michel 03:24:00 SEM - M 186 SEM 2707
386 CANNIE Franck 03:24:02 V1M - M 137 V1M 2206
387 MARC ANTOINE Thomas 03:24:02 SEM - M 187 SEM 3002
388 PATTYN Christian 03:24:07 V2M - M 32 V2M 3135
389 MUSMEAUX Christian 03:24:13 V1M - M 138 V1M 3085
390 BEQUIN Isabelle 03:24:19 SEF - F 13 SEF 2092
391 HODICQ Freddy 03:24:21 SEM - M 188 SEM 2751
392 LEBLOND Isabelle 03:24:21 SEF - F 14 SEF 2867
393 PINOT Francois Xavier 03:24:24 SEM - M 189 SEM 3177
394 CAMUS Laurent 03:24:28 V1M - M 139 V1M 2205
395 BERCHON Arnaud 03:24:29 SEM - M 190 SEM 2093
396 MORIN David 03:24:36 SEM - M 191 SEM 3527
397 DURIEZ Arnaud 03:24:37 SEM - M 192 SEM 2549
398 HANOTTE Jean 03:24:41 V2M - M 33 V2M 2718
399 RANDOUX Fabien 03:24:41 SEM - M 193 SEM 3222
400 BUYS Pascal 03:24:43 V1M - M 140 V1M 2191
401 PETA Jeanne Estelle 03:24:47 V1F - F 12 V1F 3151
402 BONNET Pomme 03:24:49 SEF - F 15 SEF 2131
403 PIETRZAK Nicolas 03:24:50 SEM - M 194 SEM 3174
404 GOEURY Charles Henri 03:24:50 SEM - M 195 SEM 2674
405 BAILLY Geoffrey 03:25:02 SEM - M 196 SEM 2044
406 LEFEVRE Valentin 03:25:04 SEM - M 197 SEM 2894
407 VERMEIREN Christophe 03:25:07 V1M - M 141 V1M 3467
408 PARIS Johan 03:25:19 SEM - M 198 SEM 3129
409 BALY Adrien 03:25:30 SEM - M 199 SEM 2051
410 HENNERON Eric 03:25:30 V2M - M 34 V2M 2729
411 DESTREBECQ Bernard 03:25:31 V2M - M 35 V2M 2454
412 DUMONT Julien 03:25:33 SEM - M 200 SEM 2526
413 WDOWIAK Olivier 03:25:46 V1M - M 142 V1M 3492
414 BLARET Laurent 03:25:54 V1M - M 143 V1M 2116
415 KALMAN Nathalie 03:25:59 SEF - F 16 SEF 2802
416 LECLER Florent 03:26:17 SEM - M 201 SEM 2870
417 GILBERT Olivier 03:26:25 V1M - M 144 V1M 2661
418 MARKI Isabelle 03:26:27 SEF - F 17 SEF 3006
419 LOUCHART Julien 03:26:28 SEM - M 202 SEM 2962
420 LENGLET Kevin 03:26:29 SEM - M 203 SEM 2923
421 WAGUET Michael 03:26:30 SEM - M 204 SEM 3482
422 ANTROPE Nicolas 03:26:32 SEM - M 205 SEM 2021
423 GAMBILLO Roberto 03:26:36 V1M - M 145 V1M 2638
424 BEKHDADI Jean Pierre 03:26:43 V2M - M 36 V2M 2082
425 BLAZE Cedric 03:26:51 V1M - M 146 V1M 2117
426 PARIS Jerome 03:27:00 SEM - M 206 SEM 3128
427 LECOEUVRE Serge 03:27:01 V1M - M 147 V1M 2879
428 DE OLIVEIRA Manuel 03:27:05 V2M - M 37 V2M 2338
429 WINDAL Emmanuel 03:27:07 V2M - M 38 V2M 3503
430 GILON Marc 03:27:08 V2M - M 39 V2M 2665
431 SENANEUCH Remi 03:27:08 SEM - M 207 SEM 3309
432 DUCANDAS Franck 03:27:15 V1M - M 148 V1M 2504
433 BRUNET Gerard 03:27:15 V2M - M 40 V2M 2178
434 BEKAERT Christophe 03:27:17 V1M - M 149 V1M 2081
435 HENNEBERT Emmanuel 03:27:33 V1M - M 150 V1M 2728
436 SIX Luc 03:27:34 V1M - M 151 V1M 3329
437 HORLANCE Xavier 03:27:34 V2M - M 41 V2M 2758
438 BOENS Frederic 03:27:35 V1M - M 152 V1M 2127
439 PEBREUIL Arthur 03:27:37 SEM - M 208 SEM 3138
440 POTTIER Olivier 03:27:38 V1M - M 153 V1M 3193
441 ANQUEZ Thierry 03:27:46 V1M - M 154 V1M 2018
442 VANDENBROUCKE Celine 03:27:57 SEF - F 18 SEF 3422
443 SPEYBROEK David 03:28:00 V1M - M 155 V1M 3339
444 CARLU Marc 03:28:01 SEM - M 209 SEM 2215
445 THERY Laurent 03:28:02 V1M - M 156 V1M 3363
446 LEJOSNE Alexandre 03:28:03 SEM - M 210 SEM 2910
447 PLANKEELE David 03:28:05 SEM - M 211 SEM 3184
448 LO GIUDICE Marco 03:28:07 SEM - M 212 SEM 2952
449 LEBAS Eric 03:28:14 V1M - M 157 V1M 2863
450 BELGEONNE Antoine 03:28:17 SEM - M 213 SEM 1041
451 BAILLY Aurelie 03:28:18 SEF - F 19 SEF 2045
452 MILLOT Stephane 03:28:20 V1M - M 158 V1M 3052
453 LEGRAND Vincent 03:28:22 SEM - M 214 SEM 2901
454 DUBUS David 03:28:25 V1M - M 159 V1M 2501
455 MIZON Jerome 03:28:29 V1M - M 160 V1M 3059
456 DEWATINE Alban 03:28:29 SEM - M 215 SEM 2470
457 PICHOIS Bruno 03:28:35 V2M - M 42 V2M 3164
458 TERRIER Thierry 03:28:36 V1M - M 161 V1M 3356
459 HAGNERE Olivier 03:28:36 V1M - M 162 V1M 2714
460 KROMOSKA Mathieu 03:28:42 SEM - M 216 SEM 2820
461 DELCOURT Florence 03:28:47 V1F - F 13 V1F 2379
462 CRETEL Pierre 03:28:48 SEM - M 217 SEM 2298
463 MERCKEL Olivier 03:28:51 V1M - M 163 V1M 3035
464 GODET Jerome 03:29:00 V1M - M 164 V1M 2672
465 JASPAR Steve 03:29:01 SEM - M 218 SEM 2779
466 MACHERAC Laurent 03:29:04 V2M - M 43 V2M 2972
467 DAHLMANN Jeremy 03:29:05 SEM - M 219 SEM 2312
468 DEMEESTER Vincent 03:29:13 V1M - M 165 V1M 2411
469 MOLENBERGHS Laurent 03:29:16 V1M - M 166 V1M 3060
470 PENNEQUIN Pascal 03:29:16 V2M - M 44 V2M 3142
471 WILLEM Jean Philippe 03:29:17 SEM - M 220 SEM 3497
472 THUEUX Jean Eric 03:29:17 V1M - M 167 V1M 3380
473 KARBOWIACK Marek 03:29:17 V2M - M 45 V2M 2803
474 DILIBERTO Manuel 03:29:19 SEM - M 221 SEM 2482
475 ROUSSEAU Pascal 03:29:22 V1M - M 168 V1M 3262
476 BAFCOP Christian 03:29:30 V2M - M 46 V2M 2039
477 ALECSANDRE Yannick 03:29:51 V1M - M 169 V1M 2008
478 ZERAOULIA Mohamed 03:29:51 V1M - M 170 V1M 3513
479 BERNARD Helene 03:29:51 SEF - F 20 SEF 2097
480 VAN LOOCKE Vincent 03:29:54 V1M - M 171 V1M 3410
481 BAILLY Jerome 03:29:57 SEM - M 222 SEM 2046
482 MOUSSAY Laurent 03:30:03 V1M - M 172 V1M 3079
483 MAZINGARBE Herve 03:30:03 V1M - M 173 V1M 3026
484 BERTOLOTTI Fabrice 03:30:06 V1M - M 174 V1M 2102
485 FLAMENT Laurent 03:30:07 V1M - M 175 V1M 2595
486 SULLI Cedric 03:30:13 SEM - M 223 SEM 3350
487 LOBOZIAK Christophe 03:30:17 V1M - M 176 V1M 2953
488 FILLIETTE Nicolas 03:30:23 SEM - M 224 SEM 2590
489 BRABANT Harry 03:30:23 SEM - M 225 SEM 2161
490 FRANCOIS Frederic 03:30:23 V1M - M 177 V1M 2620
491 MAGNIER Blaise 03:30:29 SEM - M 226 SEM 2976
492 CARON Mathieu 03:30:31 SEM - M 227 SEM 2216
493 CAPELLE Pierre 03:30:33 SEM - M 228 SEM 2208
494 BOUTLEUX Francis 03:30:36 V2M - M 47 V2M 2158
495 CASSART Francis 03:30:38 V1M - M 178 V1M 2222
496 DUTERTRE Fred 03:30:39 V1M - M 179 V1M 2550
497 PETITPREZ Thierry 03:30:41 V1M - M 180 V1M 3155
498 ROUX Andre 03:30:42 SEM - M 229 SEM 3271
499 BONNIEZ Jean Charles 03:30:49 V2M - M 48 V2M 2133
500 FICHEUX Sebastien 03:30:49 V1M - M 181 V1M 2588
501 VANDESQUILLE Herve 03:30:49 V2M - M 49 V2M 3432
502 DEMAESENEIRE Ludovic 03:30:54 SEM - M 230 SEM 2408
503 VASSEUR Carole 03:30:55 V1F - F 14 V1F 3455
504 FLORENCE Perrine 03:31:01 SEF - F 21 SEF 2599
505 ONYSZKO Francois 03:31:09 V1M - M 182 V1M 3118
506 VAN MULLEM Thomas 03:31:09 SEM - M 231 SEM 3411
507 FRANcOIS Lacroix 03:31:11 V1M - M 183 V1M 2623
508 ROSSETTO Alexandre 03:31:12 SEM - M 232 SEM 3259
509 HARDOIN Jean Francois 03:31:13 V1M - M 184 V1M 3525
510 SCHOLAERT Frederic 03:31:24 V1M - M 185 V1M 3302
511 CHAUCHOY Olivier 03:31:26 V1M - M 186 V1M 2247
512 MILIS Stephan 03:31:29 V2M - M 50 V2M 3049
513 GLASSIER Francois 03:31:37 V1M - M 187 V1M 2669
514 CLAES Catherine 03:31:47 V1F - F 15 V1F 2253
515 GRIBOVAL Christian 03:31:48 V2M - M 51 V2M 2697
516 FONTAINE Coralie 03:31:48 SEF - F 22 SEF 2600
517 DESOBRY Guillaume 03:31:49 SEM - M 233 SEM 2443
518 CLIQUe Manuel 03:31:51 SEM - M 234 SEM 2261
519 HIERNAUX Yves 03:31:54 SEM - M 235 SEM 2749
520 LENSEN Eric 03:31:57 V1M - M 188 V1M 2925
521 HAUSPIE Cedric 03:32:08 V1M - M 189 V1M 2724
522 NOURRY BRUNIN Ingrid 03:32:11 SEF - F 23 SEF 3111
523 THERET Francois 03:32:12 SEM - M 236 SEM 3360
524 GAReNAUX Francois 03:32:13 V1M - M 190 V1M 2642
525 FRANCOIS Thomas 03:32:14 SEM - M 237 SEM 2614
526 FREDERIC Stec 03:32:15 V1M - M 191 V1M 2625
527 POTRZEBA Sebastien 03:32:25 SEM - M 238 SEM 3192
528 LECOT Alban 03:32:27 SEM - M 239 SEM 2882
529 DECLEMY Olivier 03:32:29 SEM - M 240 SEM 2354
530 DESCHAMPS Philippe 03:32:30 V1M - M 192 V1M 2436
531 KUBIAK Carine 03:32:30 SEF - F 24 SEF 2822
532 DANET Stephanie 03:32:31 V1F - F 16 V1F 2317
533 MAILLOT Jean Louis 03:32:37 V2M - M 52 V2M 2982
534 EVRARD Christophe 03:32:45 V1M - M 193 V1M 2567
535 DRANSART Philippe 03:32:47 SEM - M 241 SEM 2494
536 HAIDAR Naef 03:32:54 V2M - M 53 V2M 2715
537 BAILLARD Christelle 03:33:02 V1F - F 17 V1F 2040
538 GOSSE Jeremy 03:33:05 SEM - M 242 SEM 2680
539 NODDER Jane 03:33:06 V2F - F 3 V2F 3104
540 RIDDELL Avril 03:33:06 V3F - F 2 V3F 3240
541 POGODA Sebastien 03:33:08 SEM - M 243 SEM 3188
542 PIERARD Francois 03:33:12 SEM - M 244 SEM 3169
543 RAMERY Sebastien 03:33:14 SEM - M 245 SEM 3215
544 PESEZ Reynald 03:33:24 SEM - M 246 SEM 3150
545 DUJARDIN Nicolas 03:33:24 V1M - M 194 V1M 2522
546 HANOT Vincent 03:33:25 V1M - M 195 V1M 2717
547 HAUGUEL Pascal 03:33:27 V2M - M 54 V2M 2723
548 COURTADE Olivier 03:33:29 V1M - M 196 V1M 2291
549 LAGACHE Sabine 03:33:30 V1F - F 18 V1F 2833
550 BODDAERT Pierre 03:33:31 V2M - M 55 V2M 2125
551 LOMBARD Thierry 03:33:38 V1M - M 197 V1M 2956
552 CROUTTE Jean Raymond 03:33:40 V2M - M 56 V2M 2299
553 BOURNAILLIE Nicole 03:33:41 V3F - F 3 V3F 2152
554 BRASSELET Bastien 03:33:44 SEM - M 247 SEM 2165
555 DUCAMP Jean Michel 03:33:52 V1M - M 198 V1M 2502
556 LHERMILLIER Freddy 03:33:54 V3M - M 6 V3M 2942
557 FEUTRY Vincent 03:33:57 V1M - M 199 V1M 2587
558 KRIEGER Olivier 03:33:59 V1M - M 200 V1M 2819
559 CORDIER Pauline 03:34:00 V1F - F 19 V1F 2277
560 ROHART Caroline 03:34:00 SEF - F 25 SEF 3252
561 VANMAIRIS William 03:34:03 V1M - M 201 V1M 3443
562 BRICOUT Daniel 03:34:06 V3M - M 7 V3M 2171
563 BOUVILLE Melanie 03:34:07 SEF - F 26 SEF 2160
564 CATTEAU Matthieu 03:34:08 SEM - M 248 SEM 2231
565 COLON Samuel 03:34:10 V1M - M 202 V1M 2272
566 JEGOU Juliette 03:34:10 V1F - F 20 V1F 2786
567 DUPLOUY Pierre 03:34:12 SEM - M 249 SEM 2681
568 CASTALDI Olivier 03:34:13 V1M - M 203 V1M 2223
569 LECOCQ Alain 03:34:14 V2M - M 57 V2M 2878
570 GOLDIAN Cedric 03:34:24 SEM - M 250 SEM 2677
571 FRERE Christelle 03:34:27 V1F - F 21 V1F 2629
572 RIVIERE David 03:34:31 V1M - M 204 V1M 3242
573 SORDET Laetitia 03:34:41 V1F - F 22 V1F 3333
574 LELONG Didier 03:34:50 V2M - M 58 V2M 2914
575 GAROT Matthias 03:35:02 SEM - M 251 SEM 2643
576 LAVIDIERE Arnaud 03:35:06 SEM - M 252 SEM 2854
577 WIECH Gervais 03:35:07 V2M - M 59 V2M 3495
578 JURKIEWIECZ Yves 03:35:09 SEM - M 253 SEM 2799
579 DUCHATELET Arnaud 03:35:18 SEM - M 254 SEM 2507
580 BULENS David 03:35:24 V1M - M 205 V1M 2182
581 LEGRAND Michel 03:35:26 V2M - M 60 V2M 2898
582 VASSEUR Sylvain 03:35:30 SEM - M 255 SEM 3453
583 PUJOL Thierry 03:35:35 V1M - M 206 V1M 3205
584 AOUSALAH Larbi 03:35:39 V1M - M 207 V1M 2023
585 BEBIN Sophie 03:35:46 SEF - F 27 SEF 2077
586 THOMAS Pierre Olivier 03:35:48 V1M - M 208 V1M 3373
587 FRANCIS Willoqueaux 03:35:48 V1M - M 209 V1M 2615
588 FRANCOIS Louis 03:35:52 V1M - M 210 V1M 2617
589 PEUCH Frederic 03:35:53 SEM - M 256 SEM 3156
590 PLANKEELE Guy 03:35:54 SEM - M 257 SEM 3183
591 THULIEZ Frederic 03:36:01 SEM - M 258 SEM 3381
592 DEBANDT Veronique 03:36:01 V2F - F 4 V2F 2347
593 LAMBIN Jordy 03:36:05 SEM - M 259 SEM 2843
594 RAZEMON Stephane 03:36:08 V2M - M 61 V2M 3229
595 VERDOUCQ Antoine 03:36:08 SEM - M 260 SEM 3462
596 MOREAU Christophe 03:36:19 V1M - M 211 V1M 3066
597 KOCAJ Jean Jacques 03:36:23 SEM - M 261 SEM 2816
598 KUZNICKI Pierre 03:36:24 SEM - M 262 SEM 2823
599 DESSEAUX Guillaume 03:36:25 SEM - M 263 SEM 2448
600 DOUAY Corinne 03:36:30 V2F - F 5 V2F 2489
601 BONTE Charles 03:36:33 SEM - M 264 SEM 2134
602 QUEVAL David 03:36:35 V1M - M 212 V1M 3209
603 DE RIEMAECKER Frederic 03:36:36 V1M - M 213 V1M 2342
604 BODIN Pierre Yves 03:36:36 V1M - M 214 V1M 2126
605 DURAND Sophie 03:36:44 V1F - F 23 V1F 2545
606 SPILMONT Helene 03:36:45 SEF - F 28 SEF 3340
607 GReMONT Romuald 03:36:57 V1M - M 215 V1M 210
608 CZECHOWSKI Fabrice 03:36:58 V1M - M 216 V1M 2307
609 LAVERSIN Samuel 03:37:04 SEM - M 265 SEM 2853
610 RASSON Olivier 03:37:14 SEM - M 266 SEM 3224
611 ANTOLOTTI Sebastien 03:37:14 SEM - M 267 SEM 2019
612 LECOMTE Jerome 03:37:18 SEM - M 268 SEM 2880
613 VANOYE Guillaume 03:37:23 V1M - M 217 V1M 3445
614 CALLENS Alexis 03:37:23 V1M - M 218 V1M 2198
615 PATRICIA Petit 03:37:26 V2F - F 6 V2F 3134
616 REGENT Thierry 03:37:36 V2M - M 62 V2M 3231
617 OLIVIER Quevrin 03:37:40 V1M - M 219 V1M 3116
618 HOUTTEQUIET Stephane 03:37:45 V1M - M 220 V1M 2765
619 DE LAZZER Gian Claudio 03:37:48 V1M - M 221 V1M 2333
620 DANGUIEN David 03:37:48 SEM - M 269 SEM 2319
621 DELBAR Thierry 03:37:50 V1M - M 222 V1M 2376
622 ROYER Arnaud 03:37:58 V1M - M 223 V1M 3272
623 LEROUGE Fred 03:38:01 V1M - M 224 V1M 2933
624 SENAVE Sylvie 03:38:11 V2F - F 7 V2F 3310
625 LEPERS Benoit 03:38:11 V1M - M 225 V1M 2928
626 HERLIN Clement 03:38:12 SEM - M 270 SEM 2740
627 BRETON David 03:38:15 SEM - M 271 SEM 2168
628 THOMERE Didier 03:38:18 V2M - M 63 V2M 3376
629 CATHUDAL Bertrand 03:38:20 V1M - M 226 V1M 2227
630 PAMART Luc 03:38:26 SEM - M 272 SEM 3120
631 REMY Sylvain 03:38:29 V2M - M 64 V2M 3233
632 SOURIS Johan 03:38:32 SEM - M 273 SEM 3336
633 REZZIK Madjid 03:38:32 V1M - M 227 V1M 3236
634 CEROUTER Gwendoline 03:38:33 SEF - F 29 SEF 2237
635 HESPEL Damien 03:38:33 V1M - M 228 V1M 2744
636 CATTEAU Laurent 03:38:34 V1M - M 229 V1M 2230
637 POMBOURCQ Didier 03:38:36 V2M - M 65 V2M 3190
638 DEVERNAY Christopher 03:38:37 SEM - M 274 SEM 2465
639 LEMAN Cyr David 03:38:37 V1M - M 230 V1M 2918
640 CHALON Catherine 03:38:39 V1F - F 24 V1F 2239
641 POULAIN Samuel 03:38:48 V1M - M 231 V1M 3195
642 PIAT Gilles 03:38:50 V2M - M 66 V2M 3162
643 DELETTREZ Tony 03:38:52 SEM - M 275 SEM 2391
644 JOMBART Florian 03:38:54 SEM - M 276 SEM 2792
645 DESMYTER Isabelle 03:38:56 V1F - F 25 V1F 2442
646 FRANCK Hennin 03:39:00 V1M - M 232 V1M 2616
647 MAIRE James 03:39:06 V1M - M 233 V1M 2984
648 VAILLANT Benoit 03:39:06 SEM - M 277 SEM 3398
649 STEELAND Gregory 03:39:07 SEM - M 278 SEM 3342
650 DUCATTEEUW Bruce 03:39:09 SEM - M 279 SEM 2506
651 DELIERS Patrice 03:39:09 V1M - M 234 V1M 2398
652 MeCHIN Berangere 03:39:19 SEF - F 30 SEF 3028
653 DUCATILLON Benjamin 03:39:20 SEM - M 280 SEM 2505
654 BALY Francois 03:39:20 SEM - M 281 SEM 2049
655 DANIEL Emo 03:39:22 V2M - M 67 V2M 2320
656 DETROZ Guy 03:39:30 V2M - M 68 V2M 2462
657 TOURNEUR Axel 03:39:37 SEM - M 282 SEM 3387
658 LECLERCQ Sylvain 03:39:38 V1M - M 235 V1M 2877
659 BOUSSEMAERE Thomas 03:39:40 SEM - M 283 SEM 2156
660 MULLER Olivier 03:39:46 V1M - M 236 V1M 3080
661 RICHARD Thierry 03:39:53 V1M - M 237 V1M 3237
662 SEINE Cedric 03:39:56 V1M - M 238 V1M 3308
663 DUCROTOIS Sebastien 03:40:01 V1M - M 239 V1M 2514
664 WILLIAMSON Thomas 03:40:05 V2M - M 69 V2M 3501
665 BURON Stephane 03:40:05 SEM - M 284 SEM 2187
666 WILLIAMSON David 03:40:06 V2M - M 70 V2M 3502
667 DUTHOIT Xavier 03:40:10 V1M - M 240 V1M 2551
668 VANHALWYN Stephane 03:40:12 V1M - M 241 V1M 3436
669 PEYROL Benedicte 03:40:19 SEF - F 31 SEF 3157
670 BUYSE Geert 03:40:23 V2M - M 71 V2M 2192
671 DALLE Bertrand 03:40:24 V1M - M 242 V1M 3515
672 GROBELNY Gerry 03:40:35 V2M - M 72 V2M 2701
673 DELVENNE Marc 03:40:43 V1M - M 243 V1M 2406
674 VERHAEGHE Benjamin 03:40:43 SEM - M 285 SEM 3464
675 LOUCHART Sylvie 03:40:44 V1F - F 26 V1F 2963
676 PARISSEAUX Anne Sophie 03:40:51 SEF - F 32 SEF 3130
677 LEFEBVRE Stephane 03:40:55 SEM - M 286 SEM 2889
678 DONCHE Sebastien 03:40:56 SEM - M 287 SEM 2488
679 BALVA Alexandre 03:40:59 SEM - M 288 SEM 2048
680 FOUQUEROLLE Sebastien 03:41:00 SEM - M 289 SEM 2607
681 BLOT Emmanuel 03:41:02 V1M - M 244 V1M 2121
682 DEMAILLY Vincent 03:41:04 SEM - M 290 SEM 2409
683 LEDUC Nathalie 03:41:06 V1F - F 27 V1F 2885
684 DESCHAMPS Juliette 03:41:06 V1F - F 28 V1F 2435
685 CARLON Anne Sophie 03:41:12 SEF - F 33 SEF 2214
686 PROTIN Dominique 03:41:22 V2M - M 73 V2M 3200
687 QUENTIN Rene 03:41:31 V1M - M 245 V1M 3208
688 PETIT Emmanuel 03:41:31 V1M - M 246 V1M 3154
689 HANQUIEZ Frederic 03:41:31 V1M - M 247 V1M 2719
690 ANTOONS Kristof 03:41:33 SEM - M 291 SEM 2020
691 DAVID Melanie 03:41:33 SEF - F 34 SEF 2327
692 DESCAMPS Olivier 03:41:33 V2M - M 74 V2M 2431
693 DUQUENNOY Jc 03:41:38 V1M - M 248 V1M 2537
694 FOSSe Thomas 03:41:51 SEM - M 292 SEM 2606
695 DIONET Stephane 03:41:53 SEM - M 293 SEM 2485
696 CARDON Fabrice 03:41:59 V1M - M 249 V1M 2212
697 MOURIER Yves 03:42:00 V1M - M 250 V1M 3078
698 HOURIEZ Guillaume 03:42:02 V1M - M 251 V1M 2763
699 MAVEAU Cedric 03:42:02 V1M - M 252 V1M 3024
700 BONDUELLE Alexis 03:42:02 SEM - M 294 SEM 2130
701 SALEMBIER Gregoire 03:42:03 SEM - M 295 SEM 3291
702 BRADIER Thomas 03:42:07 SEM - M 296 SEM 2163
703 SPANNEUT Sebastien 03:42:07 V1M - M 253 V1M 3338
704 DAMETTE Gaston 03:42:11 V1M - M 254 V1M 2314
705 DERVILLE Julien 03:42:16 SEM - M 297 SEM 2427
706 TIBERGHIEN Gregoire 03:42:24 SEM - M 298 SEM 3382
707 DEVILLERS Gaetan 03:42:25 SEM - M 299 SEM 2467
708 VANHOUTTE Stephanie 03:42:27 SEF - F 35 SEF 3442
709 KELLER Xavier 03:42:29 SEM - M 300 SEM 2806
710 DUPONT Mickael 03:42:31 V1M - M 255 V1M 2533
711 HORINKA Sandrine 03:42:34 SEF - F 36 SEF 2757
712 DHEM Pierre 03:42:35 V1M - M 256 V1M 3523
713 MILLAMON Sabine 03:42:38 V1F - F 29 V1F 3050
714 GAWORSKI Gerard 03:42:39 V2M - M 75 V2M 2651
715 ARYS Marie 03:42:41 SEF - F 37 SEF 2027
716 THOMAS Lydivine 03:42:46 SEF - F 38 SEF 3374
717 LEDUC Jean Maurice 03:42:47 SEM - M 301 SEM 2888
718 BeGUE Jean Francois 03:42:52 SEM - M 302 SEM 2079
719 LOUASSE Alexandre 03:42:52 SEM - M 303 SEM 2961
720 BEAUDET Christophe 03:42:55 V1M - M 257 V1M 2074
721 NEDJADI Meliza 03:43:04 SEF - F 39 SEF 3094
722 CLIQUENOY Nicolas 03:43:11 SEM - M 304 SEM 2262
723 FREDERIC Thierry 03:43:12 V1M - M 258 V1M 2627
724 LESAGE Magali 03:43:19 V1F - F 30 V1F 2936
725 BARBIEUX Sophie 03:43:19 SEF - F 40 SEF 2058
726 CUPER Remi 03:43:27 SEM - M 305 SEM 2302
727 LAMBELIN Jean Gerard 03:43:30 V2M - M 76 V2M 2842
728 BEHAGUE Herve 03:43:31 V2M - M 77 V2M 2080
729 LACROIX Marie 03:43:36 SEF - F 41 SEF 2828
730 VAMOUR Philippe 03:43:42 V2M - M 78 V2M 3403
731 BEGLIOMINI Pascal 03:43:43 V1M - M 259 V1M 2078
732 BERGIRON Ludovic 03:43:56 SEM - M 306 SEM 2094
733 MASSART Benoit 03:43:58 V2M - M 79 V2M 3017
734 FOURNIER Guy 03:44:05 V3M - M 8 V3M 2611
735 CALLOT Cecile 03:44:12 V1F - F 31 V1F 2199
736 DELHAYE Romain 03:44:13 SEM - M 307 SEM 2394
737 PRUVOST Laurent 03:44:14 V1M - M 260 V1M 3203
738 COSSEZ Guillaume 03:44:16 SEM - M 308 SEM 2284
739 GUILMIN Benoit 03:44:17 V2M - M 80 V2M 2709
740 DETREMBLEUR Bernard 03:44:17 V2M - M 81 V2M 2461
741 FASQUELLE Boris 03:44:19 V1M - M 261 V1M 2579
742 VERDIER Christophe 03:44:21 V1M - M 262 V1M 3461
743 PIeRON Vincent 03:44:31 V1M - M 263 V1M 3170
744 CHRISTOPHE Gombert 03:44:32 V1M - M 264 V1M 2251
745 LAURENT Martin 03:44:38 SEM - M 309 SEM 2851
746 CUVELIER Simon 03:44:43 SEM - M 310 SEM 2304
747 HERBINAUX Laurie 03:44:44 SEF - F 42 SEF 2737
748 DEDEURWAERDER Leslie 03:44:47 SEF - F 43 SEF 2359
749 HERVE Lemaitre 03:44:48 V2M - M 82 V2M 2741
750 BOUREL Julien 03:44:52 SEM - M 311 SEM 2150
751 HULLEBROUCK Sylvain 03:44:58 V1M - M 265 V1M 2771
752 LARUE Virginie 03:45:02 V1F - F 32 V1F 2849
753 DE WITTE Marguerite 03:45:02 SEF - F 44 SEF 2345
754 BULTEL Aurelie 03:45:02 SEF - F 45 SEF 2184
755 LOSSON Virginie 03:45:02 SEF - F 46 SEF 2960
756 VELUT Xavier 03:45:11 V2M - M 83 V2M 3457
757 VANHOUTTE Jerome 03:45:15 V1M - M 266 V1M 3441
758 DELECOURT Guillaume 03:45:16 V1M - M 267 V1M 2387
759 NARBEY Olivier 03:45:18 SEM - M 312 SEM 3090
760 GUERIN Jean Christophe 03:45:21 V1M - M 268 V1M 2706
761 GIRARD Xavier 03:45:28 SEM - M 313 SEM 2667
762 RABEL Nathalie 03:45:32 V2F - F 8 V2F 3211
763 NAVET Florence 03:45:44 V1F - F 33 V1F 3093
764 GILLES Laurent 03:45:46 V1M - M 269 V1M 2662
765 DHeNAIN Amaury 03:45:49 SEM - M 314 SEM 2476
766 SITARZ Guillaume 03:45:52 SEM - M 315 SEM 3328
767 WACQUIER Arnaud 03:46:09 SEM - M 316 SEM 3481
768 BACRO Gilles Yann 03:46:10 SEM - M 317 SEM 2035
769 CUVELIER Gregory 03:46:13 V1M - M 270 V1M 2303
770 DUHANT Ingrid 03:46:14 V1F - F 34 V1F 2518
771 CAVAGNA Olivier 03:46:17 V1M - M 271 V1M 2235
772 JOAN Kahlil 03:46:19 V1M - M 272 V1M 2790
773 DE CLIPPELE Bruno 03:46:19 V2M - M 84 V2M 2330
774 ARMAND D'Haillecourt 03:46:21 V1M - M 273 V1M 2025
775 DEDEURWAERDER Ingrid 03:46:26 SEF - F 47 SEF 2358
776 MAHIEUX Marc 03:46:26 V1M - M 274 V1M 2980
777 VAN CAUWENBERGHE Sophie 03:46:27 V1F - F 35 V1F 3405
778 RICHART Pierre 03:46:28 V1M - M 275 V1M 3238
779 FOURNIAL Loic 03:46:34 SEM - M 318 SEM 2609
780 HAMONIC Isabelle 03:46:39 V1F - F 36 V1F 2716
781 DEWILDE Freddy 03:46:40 V1M - M 276 V1M 2471
782 SALOMe Estelle 03:46:46 V1F - F 37 V1F 3292
783 JOOSTEN Jean Luc 03:46:47 V1M - M 277 V1M 2793
784 BRICE Bruno 03:46:49 V1M - M 278 V1M 2170
785 DELHAYE Stephane 03:46:56 V1M - M 279 V1M 2395
786 ARNOULT Frank 03:46:58 SEM - M 319 SEM 2026
787 FIEVET VASSEUR Christelle 03:47:01 V1F - F 38 V1F 2589
788 DELCROIX Olivier 03:47:02 V1M - M 280 V1M 2382
789 VINCENT Anais 03:47:04 SEF - F 48 SEF 3473
790 MEULEMEESTER Andy 03:47:04 V1M - M 281 V1M 3043
791 WILLIAMSON Nathalie 03:47:04 V1F - F 39 V1F 3500
792 PIETERARENS Kevin 03:47:04 SEM - M 320 SEM 3172
793 RONDOT Vianney 03:47:10 V1M - M 282 V1M 3257
794 VIOT Philippe 03:47:11 V1M - M 283 V1M 3474
795 MOTTE David 03:47:12 V2M - M 85 V2M 3073
796 PRIN Anne Agathe 03:47:15 SEF - F 49 SEF 3198
797 DESTOMBES Pierre Yves 03:47:24 SEM - M 321 SEM 2453
798 BULTEEL Dominique 03:47:29 V2F - F 9 V2F 2183
799 GRAS Dominique 03:47:33 V2M - M 86 V2M 2687
800 MALLET Flore 03:47:38 SEF - F 50 SEF 2992
801 CULOT Lionel 03:47:46 SEM - M 322 SEM 2300
802 SCALABRE Gregory 03:47:49 V1M - M 284 V1M 3300
803 ABARO Christophe 03:47:50 V1M - M 285 V1M 2001
804 CLEENEWERCK Christophe 03:47:50 SEM - M 323 SEM 2256
805 DURAN Nicolas 03:47:51 SEM - M 324 SEM 2544
806 OGNIBENE Serge 03:47:51 V1M - M 286 V1M 3115
807 THERASSE Franck 03:47:56 V1M - M 287 V1M 3359
808 AZANNe Comlan 03:48:04 V1M - M 288 V1M 2034
809 LEVESCOT Jerome 03:48:06 SEM - M 325 SEM 2941
810 MOTTE Francis Hubert 03:48:10 V2M - M 87 V2M 3071
811 GRAVE Sandrine 03:48:16 V1F - F 40 V1F 2691
812 MARTEL Pauline 03:48:18 SEF - F 51 SEF 3008
813 PILLON Nathalie 03:48:23 SEF - F 52 SEF 3176
814 BART Maxime 03:48:31 V1M - M 289 V1M 2062
815 SIBILLE Diane 03:48:32 SEF - F 53 SEF 3318
816 FREDERICQ Degallaix 03:48:44 V1M - M 290 V1M 2628
817 KENSIER Guillaume 03:48:45 V1M - M 291 V1M 2808
818 PETIT Cedric 03:48:45 M - M 2 M 3152
819 BEAUWENS Florence 03:48:50 SEF - F 54 SEF 2076
820 JAUQUET Joel 03:48:55 SEM - M 326 SEM 2780
821 AUDREZET Guillaume 03:48:57 SEM - M 327 SEM 2030
822 FONTAINE Regis 03:49:07 V1M - M 292 V1M 2601
823 RAHMOUNI Salim 03:49:09 V1M - M 293 V1M 3213
824 GOSSELIN Delphine 03:49:14 V1F - F 41 V1F 2681
825 CHALON Luc 03:49:15 V2M - M 88 V2M 2240
826 BUTRUILLE Ingrid 03:49:17 V2F - F 10 V2F 2190
827 LEJEUNE Charlotte 03:49:24 SEF - F 55 SEF 2909
828 JALLAGEAS Laurence 03:49:24 V1F - F 42 V1F 2778
829 DERNONCOURT Florent 03:49:28 SEM - M 328 SEM 2423
830 LEPOUTRE Alexis 03:49:39 V1M - M 294 V1M 2929
831 DETE Fabien 03:49:39 V1M - M 295 V1M 2456
832 ADRIEN Achte 03:49:40 SEM - M 329 SEM 2005
833 FACON Severine 03:49:41 SEF - F 56 SEF 2571
834 ABRAHAM Luc 03:49:49 V2M - M 89 V2M 2002
835 ERIC Martel 03:49:52 V2M - M 90 V2M 2562
836 BIASSE Marie Odile 03:49:54 V1F - F 43 V1F 2107
837 VAN GASSE Patrick 03:49:54 V2M - M 91 V2M 3408
838 FORESTIER Delphine 03:49:58 V1F - F 44 V1F 2603
839 VAN BRUSSEL Olivier 03:49:59 SEM - M 330 SEM 3404
840 GUERBEAU Michel 03:50:10 V2M - M 92 V2M 2703
841 LAMPE Marine 03:50:20 SEF - F 57 SEF 2846
842 GEELEN Beatrice 03:50:23 SEF - F 58 SEF 2652
843 KNUTS Sylvie 03:50:23 SEF - F 59 SEF 2815
844 AMBLARD Estelle 03:50:29 SEF - F 60 SEF 2014
845 BAILLY Isabelle 03:50:29 V1F - F 45 V1F 2047
846 TOUVEREY Fabrice 03:50:31 V2M - M 93 V2M 3388
847 DELATTRE Francois 03:50:31 V1M - M 296 V1M 2373
848 POZZATO Michele 03:50:34 SEM - M 331 SEM 3197
849 GRINCOURT David 03:50:35 V1M - M 297 V1M 2699
850 BOLAND Benoit 03:50:43 V2M - M 94 V2M 2128
851 DEMOUSTIER Marc 03:50:50 V2M - M 95 V2M 2416
852 DELECROIX Franck 03:50:55 SEM - M 332 SEM 2389
853 VERGISON Anne 03:50:59 V1F - F 46 V1F 3463
854 GODFROID Yves 03:51:00 V1M - M 298 V1M 2673
855 MALEON Sylvie 03:51:02 V1F - F 47 V1F 2989
856 LEVEQUE Jerome 03:51:04 V1M - M 299 V1M 2940
857 BOUCHERY Aurelie 03:51:05 SEF - F 61 SEF 2140
858 DUQUESNE Ludovic 03:51:14 SEM - M 333 SEM 2541
859 JEROME Petillion 03:51:16 V1M - M 300 V1M 2789
860 DECAMPS Bryan 03:51:16 SEM - M 334 SEM 2352
861 DECOBERT Nicolas 03:51:19 SEM - M 335 SEM 2356
862 DUHAMEL Sylvie 03:51:22 V1M - M 301 V1M 2516
863 VILLETTE Frederic 03:51:29 SEM - M 336 SEM 3471
864 RANDON Olivier 03:51:31 SEM - M 337 SEM 3218
865 KEYGNAERT Jeroen 03:51:34 SEM - M 338 SEM 2810
866 BAUDUIN Maxime 03:51:35 SEM - M 339 SEM 2069
867 CAPRIGLIONE Emmnuel 03:51:56 V1M - M 302 V1M 2209
868 SAND Olivier 03:51:58 SEM - M 340 SEM 3295
869 VAILLANT Pascal 03:52:00 V2M - M 96 V2M 3397
870 NATHALIE Moreau 03:52:05 V2F - F 11 V2F 3091
871 MAISIERES Viviane 03:52:09 V1F - F 48 V1F 2986
872 PIRARD Jean Luc 03:52:11 V1M - M 303 V1M 3179
873 GUIOT Daniel 03:52:14 V3M - M 9 V3M 2711
874 CHARLATE/GALLAND Sandrine 03:52:16 V1F - F 49 V1F 2244
875 GRUT Dominique 03:52:17 V1M - M 304 V1M 2702
876 ROUSSEAUX Claudie 03:52:19 V2F - F 12 V2F 3263
877 VAN PUYVELDE Therese 03:52:20 V2F - F 13 V2F 3412
878 BADI Derry 03:52:22 M - M 3 M 2037
879 BADI Amelie 03:52:23 SEF - F 62 SEF 2036
880 COMPERNOLLE Guillaume 03:52:30 V1M - M 305 V1M 2274
881 DUCHENE Daniel 03:52:31 V3M - M 10 V3M 2508
882 EVRARD Jean Patrick 03:52:44 SEM - M 341 SEM 2566
883 DELATTRE Anne 03:52:45 V1F - F 50 V1F 2372
884 BARTHOLOMEUS Christian 03:52:47 V2M - M 97 V2M 2064
885 RUSSI Gregory 03:52:58 V1M - M 306 V1M 3279
886 GOGNIES David 03:52:58 V1M - M 307 V1M 2675
887 CABY Sophie 03:52:59 V1F - F 51 V1F 2193
888 DUHEM Sebastien 03:53:01 SEM - M 342 SEM 2519
889 VIGNAUD Mathieu 03:53:12 SEM - M 343 SEM 3470
890 LAINe Claudine 03:53:18 V1F - F 52 V1F 2837
891 CHRISTORY Gilles 03:53:19 V1M - M 308 V1M 2252
892 SCHEYVEN Genevieve 03:53:20 V1F - F 53 V1F 3301
893 TRULLEMANS Alain 03:53:20 V2M - M 98 V2M 3392
894 BENSOUDA KORAICHI Mohammed Naoufal 03:53:43 V1M - M 309 V1M 2091
895 RUYSSCHAERT Jeremy 03:53:45 SEM - M 344 SEM 3280
896 BOULLET Laetitia 03:53:47 V1F - F 54 V1F 2146
897 BOULLET Ludovic 03:53:47 V1M - M 310 V1M 2145
898 BENOIT Brigitte 03:53:48 V2F - F 14 V2F 2088
899 SAGOT Yannick 03:53:50 V2M - M 99 V2M 3287
900 LEBEAU Marianne 03:53:51 V2F - F 15 V2F 2864
901 SORIS Frederic 03:54:04 V1M - M 311 V1M 3334
902 STYPUIKOWSKI Nathalie 03:54:04 V1F - F 55 V1F 3348
903 RAVIART Sophie 03:54:06 V1F - F 56 V1F 3228
904 GAUTHIER Sylvie 03:54:26 SEF - F 63 SEF 2647
905 DEBUF Guido 03:54:38 V2M - M 100 V2M 2350
906 DAVID Lesne 03:54:41 V1M - M 312 V1M 2329
907 DELECOUR Christophe 03:54:41 V1M - M 313 V1M 2386
908 DELECOUR Nathalie 03:54:42 V1F - F 57 V1F 2385
909 TELLIER Karl 03:54:48 V2M - M 101 V2M 3353
910 NOWAK Patrice 03:54:48 V1M - M 314 V1M 3528
911 RANDOUR Philippe 03:54:49 V1M - M 315 V1M 3221
912 GARREAU Fabien 03:54:54 V1M - M 316 V1M 2644
913 SMAGGHE Jose 03:54:56 V2M - M 102 V2M 3330
914 VANDERMEERSCH Daphne 03:54:56 V1F - F 58 V1F 3427
915 ROUSSEZ Regine 03:55:12 V1F - F 59 V1F 3266
916 COLPAERT Gaetan 03:55:12 V1M - M 317 V1M 2273
917 LE SCELLER Fabrice 03:55:28 SEM - M 345 SEM 2862
918 CARBONNIER Celine 03:55:28 V1F - F 60 V1F 2210
919 LOSFELD Aymeric 03:55:29 V1M - M 318 V1M 2959
920 STRAINCHAMPS Christophe 03:55:31 V1M - M 319 V1M 3345
921 LHERMITE Lionel 03:55:31 V1M - M 320 V1M 2944
922 MAIRIAUX Steve 03:55:34 V1M - M 321 V1M 2985
923 DELHONTE Geoffrey 03:55:36 V1M - M 322 V1M 2396
924 CLEMENT Lepretre 03:55:44 SEM - M 346 SEM 2257
925 MIONNET Modestine 03:55:46 SEF - F 64 SEF 3054
926 CORDIER Hugues 03:55:49 SEM - M 347 SEM 2278
927 ALLEMAND Thierry 03:56:06 V1M - M 323 V1M 2010
928 GATTEAU Jean Baptiste 03:56:09 SEM - M 348 SEM 2646
929 KUBACKI Alain 03:56:10 V1M - M 324 V1M 2821
930 KIK Alexandre 03:56:14 SEM - M 349 SEM 2814
931 LAVRADOR Jose 03:56:21 V1M - M 325 V1M 2858
932 WOLFF Quentin 03:56:29 SEM - M 350 SEM 3506
933 NEMEGHAIRE Laurent 03:56:37 V1M - M 326 V1M 3095
934 LEJEUNE Laurent 03:56:38 V1M - M 327 V1M 2906
935 BAERT Nicolas 03:56:52 V1M - M 328 V1M 2038
936 ROBERT Gwenael 03:57:03 SEM - M 351 SEM 3243
937 KASTELIK Thomas 03:57:13 SEM - M 352 SEM 2805
938 HENOCQ Thibaut 03:57:14 SEM - M 353 SEM 2731
939 HOURDEQUIN Yann 03:57:16 SEM - M 354 SEM 2762
940 BROCHARD Anne 03:57:18 V1F - F 61 V1F 2174
941 DESTEIRDT Jean Raymond 03:57:18 V2M - M 103 V2M 2450
942 DELMELLE Pierre 03:57:24 V1M - M 329 V1M 2402
943 AMORISON David 03:57:31 SEM - M 355 SEM 2015
944 CUVILLIER Helene 03:57:32 SEF - F 65 SEF 2306
945 HOSTIOU Pierre 03:57:38 V2M - M 104 V2M 2761
946 PASTANT Dominique 03:57:44 V2F - F 16 V2F 3132
947 DEBOUT Yves 03:57:53 V1M - M 330 V1M 2349
948 BOURDREZ Emmanuel 03:58:01 V1M - M 331 V1M 2148
949 PANNEELS Jean Jacques 03:58:01 V3M - M 11 V3M 3121
950 VALENTI Christelle 03:58:03 SEF - F 66 SEF 3400
951 GAMAY Jean Bernard 03:58:05 V1M - M 332 V1M 2637
952 MILLOIS David 03:58:21 SEM - M 356 SEM 3051
953 DI MARCO Claudio 03:58:23 SEM - M 357 SEM 2478
954 LECLERCQ Eric 03:58:29 V2M - M 105 V2M 2876
955 LEFEVRE Antoine 03:58:35 SEM - M 358 SEM 2893
956 GRESSIER Daniel 03:58:37 V3M - M 12 V3M 2696
957 NOGENT Mickael 03:58:44 V1M - M 333 V1M 3108
958 MACE Benjamin 03:58:46 SEM - M 359 SEM 2970
959 PERARD Charlotte 03:58:50 V1F - F 62 V1F 3144
960 MAILLOT Florence 03:58:55 SEM - M 360 SEM 2983
961 JEAN PIERRE Level 03:58:56 V1M - M 334 V1M 2784
962 DUVIEUBOURG Laurent 03:58:57 V1M - M 335 V1M 2552
963 TROUVE Claude 03:58:59 V2M - M 106 V2M 3391
964 MACREZ Jerome 03:59:13 SEM - M 361 SEM 2974
965 LEGRAND Michele 03:59:13 V2F - F 17 V2F 2900
966 VUCKO Olivier 03:59:14 V1M - M 336 V1M 3480
967 BULTEL Stephane 03:59:20 V1M - M 337 V1M 2185
968 PIAT Catherine 03:59:27 V2F - F 18 V2F 3163
969 PASCAL Saison 03:59:33 V2M - M 107 V2M 3131
970 ZBIERSKI Christophe 03:59:36 V1M - M 338 V1M 3512
971 DECHAMBRE Pierre 03:59:37 V1M - M 339 V1M 2353
972 INGRID Maudoux 03:59:37 V1F - F 63 V1F 2773
973 DEMEYER Christophe 03:59:39 V1M - M 340 V1M 2413
974 WILLEMETZ Sophie 03:59:46 V1F - F 64 V1F 3498
975 LE MOIGNIC Elodie 03:59:52 SEF - F 67 SEF 2861
976 ESTELLE Desry 03:59:52 V1F - F 65 V1F 2563
977 BOULOIS Sylvain 03:59:53 V1M - M 341 V1M 2147
978 DELPIERRE Arnaud 03:59:55 V1M - M 342 V1M 2404
979 FLABA Catherine 03:59:55 V1F - F 66 V1F 2592
980 COULON Xavier 04:00:05 V1M - M 343 V1M 2287
981 GEVENOIS Frank 04:00:06 V2M - M 108 V2M 2658
982 LEGUAY Marianick 04:00:06 SEF - F 68 SEF 2903
983 WAY Stephane 04:00:06 V1M - M 344 V1M 3490
984 JEANPIERRE Aurelie 04:00:11 SEF - F 69 SEF 2783
985 LOEUILLIEUX Julien 04:00:17 SEM - M 362 SEM 2955
986 VAN DAELE Celine 04:00:18 V1F - F 67 V1F 3406
987 HOEDT Natacha 04:00:46 SEF - F 70 SEF 2752
988 LITTERI Joseph 04:00:46 V2M - M 109 V2M 2951
989 ODENT Stephane 04:00:46 V1M - M 345 V1M 3114
990 FLAMENT Sebastien 04:01:01 V1M - M 346 V1M 2594
991 DEMUYNCK Bertrand 04:01:11 V2M - M 110 V2M 2417
992 THERY Christelle 04:01:12 SEF - F 71 SEF 3362
993 DUMONT Francois 04:01:21 SEM - M 363 SEM 2525
994 AMARD Jean Baptiste 04:01:24 SEM - M 364 SEM 2012
995 MAQUET Romann 04:01:27 SEM - M 365 SEM 2999
996 AUBERT Magali 04:01:32 SEF - F 72 SEF 2029
997 VAN WYNSBERGE Olivier 04:01:38 V1M - M 347 V1M 3415
998 BECQUET Laurence 04:01:40 V1F - F 68 V1F 3516
999 VANDE WIELE Frank 04:01:41 V2M - M 111 V2M 3418
1000 BEZOTTE Stephane 04:01:41 V1M - M 348 V1M 2105
1001 DA COSTA NETO Antonio 04:01:55 V1M - M 349 V1M 2309
1002 JACOB Jeremy 04:01:55 SEM - M 366 SEM 2775
1003 DETOUCHE Olivier 04:02:00 V1M - M 350 V1M 2459
1004 ASTRUC Jean Marc 04:02:13 V2M - M 112 V2M 2028
1005 DELCOURT Genevieve 04:02:18 V2F - F 19 V2F 2380
1006 DEUUDON Christophe 04:02:22 V1M - M 351 V1M 2463
1007 MATTENS Anne Marie 04:02:24 V2F - F 20 V2F 3021
1008 RYCKELYNCK Remi 04:02:32 SEM - M 367 SEM 3284
1009 HOST Marc 04:02:32 V2M - M 113 V2M 2760
1010 RYCKEBUSCH Sylvie 04:02:38 V2F - F 21 V2F 3282
1011 FURRY Jean Baptiste 04:02:39 SEM - M 368 SEM 2632
1012 CHAMPAGNE Cedric 04:02:42 V1M - M 352 V1M 2241
1013 LEFEBVRE Gregory 04:02:54 SEM - M 369 SEM 2890
1014 VANDERMEERSCH David 04:03:05 SEM - M 370 SEM 3426
1015 VERHAMME Jennyfer 04:03:11 V1F - F 69 V1F 3465
1016 LEMPEREUR Jean 04:03:14 V2M - M 114 V2M 2922
1017 LECLERCQ Olivier 04:03:17 V2M - M 115 V2M 2871
1018 MASQUELET Nicolas 04:03:23 SEM - M 371 SEM 3015
1019 BERNARD Michael 04:03:27 V1M - M 353 V1M 2096
1020 PICRON Olivier 04:03:28 V1M - M 354 V1M 3166
1021 CORNU Julie 04:03:29 SEF - F 73 SEF 2280
1022 BOUDRY Vincent 04:03:39 V1M - M 355 V1M 2142
1023 FORNALIK Michel 04:03:51 SEM - M 372 SEM 2604
1024 BROSSARD Herve 04:03:51 V1M - M 356 V1M 2175
1025 GENDERA Aurelie 04:03:55 SEF - F 74 SEF 2653
1026 SENS ESPEL Roser 04:03:55 SEF - F 75 SEF 3311
1027 MASSART Sebastien 04:03:57 SEM - M 373 SEM 3016
1028 GARBAR Didier 04:03:57 V2M - M 116 V2M 2639
1029 ERIC Vanderveken 04:04:04 V2M - M 117 V2M 2561
1030 MERCIER Baptiste 04:04:18 SEM - M 374 SEM 3034
1031 DHAINE David 04:04:22 V1M - M 357 V1M 2473
1032 POURCELOT Sebastien 04:04:29 SEM - M 375 SEM 3196
1033 ANICOT Karine 04:04:29 V1F - F 70 V1F 2016
1034 SIMONART Veronique 04:04:34 V1F - F 71 V1F 3324
1035 BUCHET Herve 04:04:36 V1M - M 358 V1M 2181
1036 LAFORGE Eric 04:04:37 V1M - M 359 V1M 2832
1037 VANSTEENBRUGGE Dominique 04:04:38 V1F - F 72 V1F 3447
1038 VERHELLE Ludovic 04:04:39 V1M - M 360 V1M 3466
1039 ANTUNES Philippe 04:04:46 V1M - M 361 V1M 2022
1040 MALVACHE Dominique 04:04:47 V1M - M 362 V1M 2993
1041 GOSSELIN Jean Francois 04:04:48 V1M - M 363 V1M 2682
1042 CAMPION Pierre 04:04:54 SEM - M 376 SEM 2203
1043 DI MARCO Sesto 04:05:04 V1M - M 364 V1M 2479
1044 LABRIFFE Sophie 04:05:11 V2F - F 22 V2F 2826
1045 DESIR Veronique 04:05:11 V2F - F 23 V2F 2437
1046 BIA Astrid 04:05:16 V1F - F 73 V1F 2106
1047 LEROY Nathalie 04:05:17 V1F - F 74 V1F 2934
1048 COLLETTE Olivier 04:05:22 V1M - M 365 V1M 2268
1049 DUMONT Amelie 04:05:32 V1F - F 75 V1F 2524
1050 SEIGNEUR Anthony 04:05:35 SEM - M 377 SEM 3305
1051 GILLES Jean Pierre 04:05:35 V3M - M 13 V3M 2663
1052 DAMAY Jean Yves 04:05:35 SEM - M 378 SEM 2313
1053 DELAUTEL Xavier 04:05:38 V1M - M 366 V1M 2375
1054 LEMAIRE Franck 04:05:41 V1M - M 367 V1M 2916
1055 LAMBRECHTS Dominique 04:05:44 V2M - M 118 V2M 2844
1056 LEGISA Stephanie 04:05:45 SEF - F 76 SEF 2896
1057 ALLIZARD Gregory 04:05:51 SEM - M 379 SEM 2011
1058 SERRES Loic 04:05:51 SEM - M 380 SEM 3317
1059 COURTOIS Romain 04:05:51 SEM - M 381 SEM 2293
1060 FAUVEL Yann 04:05:53 V1M - M 368 V1M 2582
1061 LECHANTRE Gilles 04:05:54 V1M - M 369 V1M 2869
1062 QUENON Frederic 04:06:08 V1M - M 370 V1M 3207
1063 DEVAUX Eric 04:06:12 V2M - M 119 V2M 2464
1064 STIRA Najib 04:06:13 V1M - M 371 V1M 3344
1065 MAGNIER Eric 04:06:13 V2M - M 120 V2M 2977
1066 MAGNE Frederic 04:06:21 V2M - M 121 V2M 2975
1067 SYLVIE Legrand 04:06:22 V2F - F 24 V2F 3352
1068 POTTIER Valerie 04:06:22 V1F - F 76 V1F 3194
1069 HOLUIGUE David 04:06:56 SEM - M 382 SEM 2754
1070 WATINE Simon 04:06:57 SEM - M 383 SEM 3487
1071 LOUCHET Aurelie 04:07:10 SEF - F 77 SEF 2964
1072 MARTINET Magali 04:07:30 SEF - F 78 SEF 3014
1073 LABRIFFE Marc 04:07:31 V2M - M 122 V2M 2827
1074 QUANDALLE Christophe 04:07:32 V1M - M 372 V1M 3206
1075 SUTERA Giovanni 04:07:38 SEM - M 384 SEM 3351
1076 LERICQUE Sylvie 04:07:44 SEF - F 79 SEF 2930
1077 DRUART Isabelle 04:07:46 V1F - F 77 V1F 2495
1078 LYOeN Jean Marc 04:07:55 V2M - M 123 V2M 2968
1079 BATALLER Benjamin 04:08:02 SEM - M 385 SEM 2066
1080 VANDERZYPPE Catherine 04:08:03 V1F - F 78 V1F 3431
1081 PALAVIT Cecile 04:08:21 SEF - F 80 SEF 3119
1082 MILINKOVITCH Sylvette 04:08:22 V2F - F 25 V2F 3048
1083 DUPUREUR Emmanuel 04:08:24 V1M - M 373 V1M 2536
1084 ROQUETTE Gauthier 04:08:30 SEM - M 386 SEM 3258
1085 MULLIEZ Fabien 04:08:31 V2M - M 124 V2M 3081
1086 GUISSE Blandine 04:08:37 SEF - F 81 SEF 2712
1087 BOUGHRIET Celia 04:08:39 SEF - F 82 SEF 2143
1088 DESART Yves 04:08:41 V1M - M 374 V1M 2429
1089 LEGROS Mylene 04:08:41 V1F - F 79 V1F 2902
1090 DHeNAIN Ingrid 04:08:45 SEF - F 83 SEF 2477
1091 GLET CHOUCROUN Michele 04:08:49 V1F - F 80 V1F 2670
1092 FARHI Anne Claire 04:08:49 V1F - F 81 V1F 2577
1093 MARCHANT Anne Sophie 04:09:06 SEF - F 84 SEF 3003
1094 ROME Philippe 04:09:11 V1M - M 375 V1M 3254
1095 HICK Gaelle 04:09:12 SEF - F 85 SEF 2748
1096 SEBASTIEN Claidiere 04:09:24 SEM - M 387 SEM 3303
1097 LAMANDIN Olivia 04:09:24 SEF - F 86 SEF 2841
1098 CLAIDIERE Delphine 04:09:24 SEF - F 87 SEF 2254
1099 SERGENT Florence 04:09:24 V1F - F 82 V1F 3316
1100 EDOUARD Lamandin 04:09:24 SEM - M 388 SEM 2555
1101 SERGENT Alain 04:09:26 V1M - M 376 V1M 3315
1102 BIBBO Gregory 04:09:31 V1M - M 377 V1M 2108
1103 KASTELIK Thibault 04:09:34 SEM - M 389 SEM 2804
1104 VANHEES Jean Louis 04:09:40 V3M - M 14 V3M 3437
1105 VERCAMER Julien 04:09:55 SEM - M 390 SEM 3460
1106 HOCHART Cedric 04:09:55 SEM - M 391 SEM 2750
1107 SIDEL Alexandre 04:09:57 SEM - M 392 SEM 3319
1108 RYCKEBUSCH Christophe 04:09:57 V1M - M 378 V1M 3283
1109 GREMPKA Claude 04:10:02 V1M - M 379 V1M 2694
1110 WAYMEL Benedicte 04:10:29 V1F - F 83 V1F 3491
1111 VANHOORDE Martial 04:10:30 V2M - M 125 V2M 3440
1112 LAURENCE Caplette 04:10:31 SEF - F 88 SEF 2850
1113 DESCAMPS Thomas 04:10:31 V1M - M 380 V1M 2434
1114 SIEBIERSKI Jean Francois 04:10:31 V1M - M 381 V1M 3321
1115 OLLINGER Francois 04:10:40 SEM - M 393 SEM 3117
1116 HERVe Jerome 04:10:43 V1M - M 382 V1M 2742
1117 LALOUP Fabien 04:10:54 SEM - M 394 SEM 2839
1118 JACQUEMART Francoise 04:10:54 V2F - F 26 V2F 2776
1119 SIMONCINI Pascal 04:10:57 V1M - M 383 V1M 3325
1120 KESSLER Christian 04:11:01 V2M - M 126 V2M 2809
1121 COLLETTE Arnaud 04:11:20 V1M - M 384 V1M 2269
1122 DUPUIS Jean Paul 04:11:32 V1M - M 385 V1M 2535
1123 CAUCHE Nicolas 04:11:37 SEM - M 395 SEM 2232
1124 DEBAVELAERE Timothee 04:11:40 SEM - M 396 SEM 2348
1125 DOVERGNE Laurent 04:12:12 SEM - M 397 SEM 2492
1126 LEDUC Marielaure 04:12:16 SEF - F 89 SEF 2887
1127 MAROT Anne 04:12:25 V2F - F 27 V2F 3007
1128 BOSCARDIN Nadine 04:12:25 V1F - F 84 V1F 2137
1129 NAVET Sebastien 04:12:43 V1M - M 386 V1M 3092
1130 COUTAUT Pascal 04:13:32 V1M - M 387 V1M 2295
1131 MANSSENS Valerie 04:13:33 V1F - F 85 V1F 2997
1132 ROUX Florence 04:13:43 SEF - F 90 SEF 3270
1133 LEJOSNE Sebastien 04:13:47 V1M - M 388 V1M 2911
1134 LALOUX Sophie 04:13:51 SEF - F 91 SEF 2840
1135 THIEBAUT Veronique 04:13:58 V2F - F 28 V2F 3370
1136 VAESSEN Luc 04:13:58 V2M - M 127 V2M 3396
1137 MORAND Nathalie 04:14:01 V1F - F 86 V1F 3065
1138 ENDERLIN Christelle 04:14:01 V1F - F 87 V1F 2558
1139 BARROIS Nicolas 04:14:09 SEM - M 398 SEM 2061
1140 BRAECKMAN Patricia 04:14:26 V2F - F 29 V2F 2164
1141 MONTADOR Jacques 04:14:35 V3M - M 15 V3M 3063
1142 MANCHUELLE Stephane 04:15:20 V1M - M 389 V1M 2994
1143 COUPEZ Anne Sophie 04:15:37 V1F - F 88 V1F 2288
1144 TRUYE Dorothee 04:15:37 SEF - F 92 SEF 3394
1145 DEMERLIER Ingrid 04:15:38 V1F - F 89 V1F 2412
1146 WILLEMS Coralie 04:15:38 V1F - F 90 V1F 3499
1147 RAMON Maxime 04:15:41 SEM - M 399 SEM 3217
1148 THONNARD Michael 04:15:43 SEM - M 400 SEM 3377
1149 DEPLECHIN Aline 04:15:43 SEF - F 93 SEF 2421
1150 THORIR ORN Thorisson 04:15:45 V1M - M 390 V1M 3379
1151 WISNIEWSKI Frederic 04:16:17 V2M - M 128 V2M 3505
1152 WRONA Virginie 04:16:21 V1F - F 91 V1F 3508
1153 BENEDICTE Meurisse 04:16:23 SEF - F 94 SEF 2086
1154 PAPAIX Claire 04:16:23 SEF - F 95 SEF 3122
1155 PHILIPPE Dupriez 04:16:25 V1M - M 391 V1M 3158
1156 ROUSELLE Dominique 04:16:28 V2M - M 129 V2M 3260
1157 ROUSSELLE Marion 04:16:29 SEF - F 96 SEF 3265
1158 GAUTIER Angelique 04:16:37 V1F - F 92 V1F 2650
1159 DUHEM Damien 04:16:46 V1M - M 392 V1M 2521
1160 AVISSE Sebastien 04:16:47 SEM - M 401 SEM 2033
1161 CHOQUET David 04:16:52 SEM - M 402 SEM 2248
1162 LEPERS Caroline 04:16:55 SEF - F 97 SEF 2927
1163 VAN DORPE Marthe 04:16:55 V1F - F 93 V1F 3407
1164 BENNARDO Michel 04:17:01 V1M - M 393 V1M 2087
1165 MOTTART Florence 04:17:41 SEF - F 98 SEF 3070
1166 MICHEL Therese Marie 04:18:11 V1F - F 94 V1F 3045
1167 GAILLARD FranAoise 04:18:29 V2F - F 30 V2F 2633
1168 PLUTA Freddy 04:18:37 V2M - M 130 V2M 3186
1169 LECLERCQ Emilien 04:18:39 SEM - M 403 SEM 2872
1170 VANDAMME Gonzague 04:18:40 V1M - M 394 V1M 3417
1171 VANDERBAUWEDE Felix 04:18:44 SEM - M 404 SEM 3424
1172 TITART Paul 04:18:55 V2M - M 131 V2M 3385
1173 LOEUILLET Sabrina 04:19:11 SEF - F 99 SEF 2954
1174 GHEZALI Stephane 04:19:18 V1M - M 395 V1M 2659
1175 BERTAUX Jean Luc 04:19:18 V1M - M 396 V1M 2099
1176 THERY Ludovic 04:19:20 V1M - M 397 V1M 3364
1177 DETOUCHE Delphine 04:19:34 V1F - F 95 V1F 2460
1178 LHEUREUX Yannick 04:20:04 SEM - M 405 SEM 2945
1179 HAU Eric 04:20:15 V2M - M 132 V2M 2721
1180 PRUVOST Patrick 04:20:24 V1M - M 398 V1M 3202
1181 VANESSA Trolet 04:20:25 SEF - F 100 SEF 3434
1182 ROBLOT Charles 04:20:40 SEM - M 406 SEM 3245
1183 CHAMPION Nicolas 04:20:40 SEM - M 407 SEM 2242
1184 DAUCHEZ Bruno 04:20:53 V2M - M 133 V2M 2325
1185 THIEBAUT Cathy 04:20:53 V1F - F 96 V1F 3368
1186 DELCROIX Odile 04:20:56 V1F - F 97 V1F 2381
1187 BOURRADA Carole 04:21:02 V1F - F 98 V1F 2153
1188 DESSAUX Julien 04:21:07 SEM - M 408 SEM 2447
1189 HAU Fabienne 04:21:09 V2F - F 31 V2F 2722
1190 SAINT GEORGES Philippe 04:21:27 V1M - M 399 V1M 3290
1191 SEIGNEUR Frederic 04:21:30 SEM - M 409 SEM 3306
1192 DESMARQUET Alexandre 04:21:31 SEM - M 410 SEM 2439
1193 EMMANUELLE Pagniez 04:22:07 SEF - F 101 SEF 2557
1194 JEROME Pagniez 04:22:07 V1M - M 400 V1M 2788
1195 DE LA BRETESCHE Vincent 04:22:12 SEM - M 411 SEM 2332
1196 ROUSSEAU Gregory 04:22:14 V1M - M 401 V1M 3261
1197 TOURBEZ Claire 04:22:31 SEF - F 102 SEF 3386
1198 BRICE Yannick 04:22:38 V1F - F 99 V1F 2169
1199 LOSFELD Anne Sophie 04:22:39 SEF - F 103 SEF 2958
1200 HULIN Christian 04:22:49 V1M - M 402 V1M 2770
1201 DOURIEZ Christine 04:22:49 V1F - F 100 V1F 2491
1202 BOURDREZ MYRIAM 04:22:49 V1F - F 101 V1F 2149
1203 WOUTS Gerard 04:23:18 V2M - M 134 V2M 3507
1204 SIMSOVIC Gael 04:23:27 V1M - M 403 V1M 3326
1205 REGNIEZ Alexandre 04:23:39 SEM - M 412 SEM 3529
1206 DERNONCOURT Etienne 04:24:00 V2M - M 135 V2M 2424
1207 DERNONCOURT Olivier 04:24:00 V3M - M 16 V3M 2425
1208 MAC GREGOR Chantal 04:24:24 V2F - F 32 V2F 2969
1209 JOUAS Sandrine 04:24:24 SEF - F 104 SEF 2795
1210 WALLET Dominique 04:24:26 V2M - M 136 V2M 3484
1211 BENBOURECHE Abdelkrim 04:24:37 V2M - M 137 V2M 2085
1212 AUVRAY Martin 04:24:44 SEM - M 413 SEM 2032
1213 BINSE Isabelle 04:24:56 V2F - F 33 V2F 2112
1214 DUGAS Laurent 04:25:23 V2F - F 34 V2F 2515
1215 HENRIOUL Fabrice 04:26:20 V1M - M 404 V1M 2734
1216 DESRY Didier 04:26:28 V3M - M 17 V3M 2446
1217 LECOT Yannick 04:26:54 V3M - M 18 V3M 2881
1218 VOKAR Caroline 04:27:38 SEF - F 105 SEF 3477
1219 CACHART Caroline 04:27:43 V1F - F 102 V1F 2195
1220 MEIRSMAN Martine 04:27:43 V2F - F 35 V2F 3032
1221 DESTENAY Patrick 04:27:59 V1M - M 405 V1M 2451
1222 BARBIER Yves 04:28:01 V2M - M 138 V2M 2056
1223 DECLERCQ Damien 04:28:01 SEM - M 414 SEM 2355
1224 MARTI Emmanuelle 04:28:39 V1F - F 103 V1F 3011
1225 MATRAT Caroline 04:28:39 SEF - F 106 SEF 3020
1226 BERTRAND Odile 04:28:43 V1F - F 104 V1F 2104
1227 SIMON Julie 04:28:44 SEF - F 107 SEF 3323
1228 MALECKI Catherine 04:28:50 V2F - F 36 V2F 2987
1229 DEVRED Olivier 04:29:06 V1M - M 406 V1M 2468
1230 STYPUIKOWSKI Patrice 04:29:52 V1M - M 407 V1M 3349
1231 HECQUET Pierre 04:29:55 V2M - M 139 V2M 2725
1232 VARLET Catherine 04:30:12 V1F - F 105 V1F 3452
1233 DE NEVE Alain 04:30:22 V1M - M 408 V1M 2337
1234 FACHE Laurence 04:30:23 V1F - F 106 V1F 2570
1235 DELLAY Matthieu 04:31:24 SEM - M 415 SEM 2399
1236 BOUTTEFEUX Jean Marc 04:32:01 V2M - M 140 V2M 2159
1237 REGNIER Brigitte 04:32:09 V1F - F 107 V1F 3232
1238 BLEIN MYRIAM 04:32:20 SEF - F 108 SEF 2118
1239 HORLANCE Delphine 04:32:39 V1F - F 108 V1F 2759
1240 BERTHON Romain 04:32:50 SEM - M 416 SEM 2101
1241 VANDERMEERSCH Mano 04:32:54 SEF - F 109 SEF 3428
1242 BARALLE Anne 04:32:58 V1F - F 109 V1F 2053
1243 NESVADBA Sophie 04:33:37 V1F - F 110 V1F 3098
1244 HeNO Pascale 04:33:38 V2F - F 37 V2F 2730
1245 THOORIS Laurent 04:35:00 V1M - M 409 V1M 3378
1246 FEUILLAT Genevieve 04:35:12 V3F - F 4 V3F 2586
1247 RUBBRECHT Christelle 04:35:12 SEF - F 110 SEF 3273
1248 RUBBRECHT Robert 04:35:12 V3M - M 19 V3M 3274
1249 JEAN YVES Lefrancois 04:35:47 V2M - M 141 V2M 2785
1250 PERROT Marion 04:35:51 SEF - F 111 SEF 3147
1251 PERROT Maxime 04:35:52 V1M - M 410 V1M 3148
1252 LEFEBVRE Alexandre 04:35:59 SEM - M 417 SEM 2892
1253 LAVIGNE FranAois 04:35:59 SEM - M 418 SEM 2856
1254 BLEVIN Emmanuelle 04:36:24 V1F - F 111 V1F 2119
1255 DECONINCK Bertrand 04:36:56 V2M - M 142 V2M 2357
1256 RAMETTE Philippe 04:37:00 V2M - M 143 V2M 3216
1257 LESCIEUX Sebastien 04:37:23 V1M - M 411 V1M 2937
1258 PLUST Patricia 04:38:01 V2F - F 38 V2F 3185
1259 MAZOUAT Camille 04:40:22 SEF - F 112 SEF 3027
1260 VIRGINIE Bonier 04:40:25 M - M 4 M 3475
1261 LIEBAUT Katrien 04:41:02 V1M - M 412 V1M 2948
1262 DELIENNE Marie Christine 04:41:43 V1F - F 112 V1F 2397
1263 LAVOGIEZ Mathieu 04:42:16 SEM - M 419 SEM 2857
1264 LYOEN Anais 04:43:23 SEF - F 113 SEF 2967
1265 BERTON Yvette 04:43:50 V2F - F 39 V2F 2103
1266 LERMINET Denis 04:44:12 V2M - M 144 V2M 2931
1267 ALLARD Sophie 04:44:31 V1F - F 113 V1F 2009
1268 GUERBEAU Pascale 04:44:32 V2F - F 40 V2F 2704
1269 DEBUS Valerie 04:46:15 V1F - F 114 V1F 2351
1270 RANDON Martial 04:46:18 V3M - M 20 V3M 3219
1271 BLAISE Matthieu 04:46:20 M - M 5 M 2114
1272 DE LONGEVILLE Quentin 04:46:22 SEM - M 420 SEM 2334
1273 RANDON Nicolas 04:46:24 SEM - M 421 SEM 3220
1274 DUMINY Benjamin 04:47:26 SEM - M 422 SEM 2523
1275 DUPIRE Vincent 04:47:27 V1M - M 413 V1M 2530
1276 BRIEZ Sandrine 04:47:31 V1F - F 115 V1F 2173
1277 BARALLE Jerome 04:47:54 V1M - M 414 V1M 2052
1278 COLLET Valerie 04:48:08 SEF - F 114 SEF 2267
1279 LEFEBVRE Eric 04:50:40 V1M - M 415 V1M 2891
1280 LAURENT Serge 04:51:08 V1M - M 416 V1M 2852
1281 MIREAU Marie Claude 04:51:21 V2M - M 145 V2M 3055
1282 DESCAMPS Marie Jose 04:51:26 V2F - F 41 V2F 2433
1283 MAILLAND Philippe 04:51:58 V2M - M 146 V2M 2981
1284 MEEUWIS Sebastien 04:55:40 SEM - M 423 SEM 3030
1285 CLAUS Therese 04:55:56 V1F - F 116 V1F 2255
1286 PHILIPPOT Fabien 04:57:04 V1M - M 417 V1M 3159
1287 MAUGAIN Nelly 04:59:59 V2F - F 42 V2F 3023
1288 DELPIERRE Hugues 05:00:42 SEM - M 424 SEM 2403
1289 CAUDRY Tatiana 05:00:44 SEF - F 115 SEF 2234
1290 RAISON Valerie 05:03:27 V1F - F 117 V1F 3214
1291 GRAVEROL DETEVE Isabelle 05:05:36 V2F - F 43 V2F 2692
1292 NOEL Johan 05:07:45 SEM - M 425 SEM 3106
1293 CASSAGNABeRE Christophe 05:14:09 SEM - M 426 SEM 2221
1294 DENYS Theophile 05:14:09 SEM - M 427 SEM 2420
1295 LEDOUX Victor 05:14:10 SEM - M 428 SEM 2884
1296 LA VIOLA Johann 05:14:13 SEM - M 429 SEM 2824
1297 LEDOLLEY Romain 05:16:36 SEM - M 430 SEM 2883
1298 CARRISSIMO Gregoire 05:22:50 SEM - M 431 SEM 2218
1299 PIRLOT Annick 05:35:38 V1F - F 118 V1F 3180
1300 NAHI Jawad 05:38:13 SEM - M 432 SEM 3088
1301 DUCROCQ Amelie 05:38:14 SEF - F 116 SEF 2513


ReferencementCe site est listé dans la catégorie Sport : Sports extrêmes Dictionnaire
| Accueil | La Réunion  Vue du ciel | Météo | Cyclones | Volcan | Cirques de Mafate , Cilaos , Salazie | Photos Randonnées | Randonnées Réunion: Randos Espiègle , Courses montagne | Diagonale des Fous |  Marathon des Sables | Voyages Les stats du site | Fonds écran | Plan du site | Blog de runraid | Galerie photos Sport Réunion |